Time,TemperatureF,DewpointF,PressureIn,WindDirection,WindDirectionDegrees,WindSpeedMPH,WindSpeedGustMPH,Humidity,HourlyPrecipIn,Conditions,Clouds,dailyrainin,SoftwareType,DateUTC
2013-05-04 00:00:00,43.0,41.9,30.12,NNW,337,6.0,6.0,96,0.00,,,0.00,VWS V14.01,2013-05-04 04:00:00,
2013-05-04 00:22:00,43.0,41.9,30.12,NW,315,7.0,7.0,96,0.00,,,0.00,VWS V14.01,2013-05-04 04:22:00,
2013-05-04 00:24:00,43.0,41.9,30.12,NNW,337,4.0,4.0,96,0.00,,,0.00,VWS V14.01,2013-05-04 04:24:00,
2013-05-04 00:28:00,42.0,40.9,30.12,North,360,5.0,7.0,96,0.00,,,0.00,VWS V14.01,2013-05-04 04:28:00,
2013-05-04 00:29:00,42.0,40.9,30.12,NNE,22,7.0,7.0,96,0.00,,,0.00,VWS V14.01,2013-05-04 04:29:00,
2013-05-04 00:30:00,42.0,40.9,30.12,NNE,22,3.0,5.0,96,0.00,,,0.00,VWS V14.01,2013-05-04 04:30:00,
2013-05-04 00:32:00,42.0,40.9,30.12,North,360,6.0,7.0,96,0.00,,,0.00,VWS V14.01,2013-05-04 04:32:00,
2013-05-04 00:34:00,42.0,40.9,30.12,North,360,2.0,3.0,96,0.00,,,0.00,VWS V14.01,2013-05-04 04:34:00,
2013-05-04 00:35:00,42.0,40.9,30.12,North,360,2.0,6.0,96,0.00,,,0.00,VWS V14.01,2013-05-04 04:35:00,
2013-05-04 00:36:00,42.0,40.9,30.12,NNW,337,1.0,3.0,96,0.00,,,0.00,VWS V14.01,2013-05-04 04:36:00,
2013-05-04 00:37:00,42.0,40.9,30.12,NNE,22,6.0,6.0,96,0.00,,,0.00,VWS V14.01,2013-05-04 04:37:00,
2013-05-04 00:40:00,42.0,40.9,30.12,North,360,4.0,6.0,96,0.00,,,0.00,VWS V14.01,2013-05-04 04:40:00,
2013-05-04 00:41:00,42.0,40.9,30.12,North,360,6.0,7.0,96,0.00,,,0.00,VWS V14.01,2013-05-04 04:41:00,
2013-05-04 00:42:00,42.0,40.9,30.12,North,360,3.0,7.0,96,0.00,,,0.00,VWS V14.01,2013-05-04 04:42:00,
2013-05-04 00:44:00,42.0,40.9,30.12,NE,45,4.0,6.0,96,0.00,,,0.00,VWS V14.01,2013-05-04 04:44:00,
2013-05-04 00:45:00,42.0,40.9,30.12,NNE,22,4.0,5.0,96,0.00,,,0.00,VWS V14.01,2013-05-04 04:45:00,
2013-05-04 00:46:00,42.0,40.9,30.12,NNE,22,3.0,4.0,96,0.00,,,0.00,VWS V14.01,2013-05-04 04:46:00,
2013-05-04 00:47:00,42.0,40.9,30.12,NNE,22,3.0,4.0,96,0.00,,,0.00,VWS V14.01,2013-05-04 04:47:00,
2013-05-04 00:49:00,42.0,40.9,30.12,NE,45,4.0,6.0,96,0.00,,,0.00,VWS V14.01,2013-05-04 04:49:00,
2013-05-04 00:52:00,42.0,40.9,30.12,North,360,0.0,5.0,96,0.00,,,0.00,VWS V14.01,2013-05-04 04:52:00,
2013-05-04 00:53:00,42.0,40.9,30.12,NE,45,4.0,6.0,96,0.00,,,0.00,VWS V14.01,2013-05-04 04:53:00,
2013-05-04 00:54:00,42.0,40.9,30.12,NE,45,1.0,3.0,96,0.00,,,0.00,VWS V14.01,2013-05-04 04:54:00,
2013-05-04 00:58:00,42.0,40.9,30.12,NE,45,1.0,1.0,96,0.00,,,0.00,VWS V14.01,2013-05-04 04:58:00,
2013-05-04 00:59:00,42.0,40.9,30.12,NE,45,0.0,1.0,96,0.00,,,0.00,VWS V14.01,2013-05-04 04:59:00,
2013-05-04 01:03:00,42.0,40.9,30.12,NE,45,0.0,0.0,96,0.00,,,0.00,VWS V14.01,2013-05-04 05:03:00,
2013-05-04 01:04:00,41.0,40.0,30.12,NE,45,0.0,0.0,96,0.00,,,0.00,VWS V14.01,2013-05-04 05:04:00,
2013-05-04 01:05:00,41.0,40.0,30.12,NE,45,0.0,0.0,96,0.00,,,0.00,VWS V14.01,2013-05-04 05:05:00,
2013-05-04 01:09:00,41.0,40.0,30.13,NE,45,2.0,2.0,96,0.00,,,0.00,VWS V14.01,2013-05-04 05:09:00,
2013-05-04 01:10:00,41.0,40.0,30.13,NE,45,1.0,2.0,96,0.00,,,0.00,VWS V14.01,2013-05-04 05:10:00,
2013-05-04 01:11:00,41.0,40.0,30.13,NE,45,0.0,0.0,96,0.00,,,0.00,VWS V14.01,2013-05-04 05:11:00,
2013-05-04 01:15:00,41.0,40.0,30.13,NE,45,0.0,0.0,96,0.00,,,0.00,VWS V14.01,2013-05-04 05:15:00,
2013-05-04 01:16:00,41.0,40.0,30.13,NE,45,2.0,2.0,96,0.00,,,0.00,VWS V14.01,2013-05-04 05:16:00,
2013-05-04 01:19:00,41.0,40.0,30.12,NE,45,2.0,4.0,96,0.00,,,0.00,VWS V14.01,2013-05-04 05:19:00,
2013-05-04 01:20:00,41.0,40.0,30.12,NE,45,6.0,6.0,96,0.00,,,0.00,VWS V14.01,2013-05-04 05:20:00,
2013-05-04 01:21:00,41.0,40.0,30.12,NE,45,4.0,4.0,96,0.00,,,0.00,VWS V14.01,2013-05-04 05:21:00,
2013-05-04 01:22:00,41.0,40.0,30.12,NE,45,3.0,4.0,96,0.00,,,0.00,VWS V14.01,2013-05-04 05:22:00,
2013-05-04 01:24:00,41.0,40.0,30.12,NE,45,1.0,3.0,96,0.00,,,0.00,VWS V14.01,2013-05-04 05:24:00,
2013-05-04 01:26:00,41.0,40.0,30.12,NNE,22,3.0,6.0,96,0.00,,,0.00,VWS V14.01,2013-05-04 05:26:00,
2013-05-04 01:27:00,41.0,40.0,30.12,NNE,22,3.0,6.0,96,0.00,,,0.00,VWS V14.01,2013-05-04 05:27:00,
2013-05-04 01:28:00,41.0,40.0,30.12,NE,45,1.0,6.0,96,0.00,,,0.00,VWS V14.01,2013-05-04 05:28:00,
2013-05-04 01:30:00,41.0,40.0,30.12,NE,45,2.0,3.0,96,0.00,,,0.00,VWS V14.01,2013-05-04 05:30:00,
2013-05-04 01:32:00,41.0,40.0,30.12,NE,45,2.0,3.0,96,0.00,,,0.00,VWS V14.01,2013-05-04 05:32:00,
2013-05-04 01:33:00,41.0,40.0,30.12,NE,45,1.0,3.0,96,0.00,,,0.00,VWS V14.01,2013-05-04 05:33:00,
2013-05-04 01:36:00,41.0,40.0,30.12,North,360,2.0,5.0,96,0.00,,,0.00,VWS V14.01,2013-05-04 05:36:00,
2013-05-04 01:38:00,41.0,40.0,30.12,North,360,4.0,4.0,96,0.00,,,0.00,VWS V14.01,2013-05-04 05:38:00,
2013-05-04 01:41:00,41.0,40.0,30.12,NE,45,6.0,6.0,96,0.00,,,0.00,VWS V14.01,2013-05-04 05:41:00,
2013-05-04 01:42:00,41.0,40.0,30.12,NE,45,5.0,5.0,96,0.00,,,0.00,VWS V14.01,2013-05-04 05:42:00,
2013-05-04 01:44:00,41.0,40.0,30.12,NE,45,3.0,6.0,96,0.00,,,0.00,VWS V14.01,2013-05-04 05:44:00,
2013-05-04 01:45:00,41.0,40.0,30.12,NE,45,2.0,4.0,96,0.00,,,0.00,VWS V14.01,2013-05-04 05:45:00,
2013-05-04 01:46:00,41.0,40.0,30.12,NE,45,4.0,4.0,96,0.00,,,0.00,VWS V14.01,2013-05-04 05:46:00,
2013-05-04 01:47:00,41.0,40.0,30.12,NE,45,4.0,5.0,96,0.00,,,0.00,VWS V14.01,2013-05-04 05:47:00,
2013-05-04 01:49:00,41.0,40.0,30.12,NE,45,2.0,3.0,96,0.00,,,0.00,VWS V14.01,2013-05-04 05:49:00,
2013-05-04 01:50:00,41.0,40.0,30.12,NE,45,3.0,4.0,96,0.00,,,0.00,VWS V14.01,2013-05-04 05:50:00,
2013-05-04 01:53:00,41.0,40.0,30.12,NE,45,4.0,5.0,96,0.00,,,0.00,VWS V14.01,2013-05-04 05:53:00,
2013-05-04 01:55:00,41.0,40.0,30.12,NE,45,4.0,5.0,96,0.00,,,0.00,VWS V14.01,2013-05-04 05:55:00,
2013-05-04 01:56:00,41.0,40.0,30.12,NE,45,3.0,5.0,96,0.00,,,0.00,VWS V14.01,2013-05-04 05:56:00,
2013-05-04 01:57:00,41.0,40.0,30.12,NE,45,3.0,4.0,96,0.00,,,0.00,VWS V14.01,2013-05-04 05:57:00,
2013-05-04 01:58:00,41.0,40.0,30.12,NE,45,5.0,6.0,96,0.00,,,0.00,VWS V14.01,2013-05-04 05:58:00,
2013-05-04 02:00:00,41.0,40.0,30.12,NE,45,2.0,5.0,96,0.00,,,0.00,VWS V14.01,2013-05-04 06:00:00,
2013-05-04 02:02:00,41.0,40.0,30.12,NNE,22,3.0,4.0,96,0.00,,,0.00,VWS V14.01,2013-05-04 06:02:00,
2013-05-04 02:04:00,41.0,40.0,30.12,NNE,22,4.0,4.0,96,0.00,,,0.00,VWS V14.01,2013-05-04 06:04:00,
2013-05-04 02:05:00,41.0,40.0,30.12,NE,45,3.0,5.0,96,0.00,,,0.00,VWS V14.01,2013-05-04 06:05:00,
2013-05-04 02:06:00,41.0,40.0,30.12,NE,45,2.0,5.0,96,0.00,,,0.00,VWS V14.01,2013-05-04 06:06:00,
2013-05-04 02:09:00,41.0,40.0,30.11,NE,45,3.0,4.0,96,0.00,,,0.00,VWS V14.01,2013-05-04 06:09:00,
2013-05-04 02:10:00,41.0,40.0,30.11,NE,45,2.0,4.0,96,0.00,,,0.00,VWS V14.01,2013-05-04 06:10:00,
2013-05-04 02:11:00,41.0,40.0,30.11,NE,45,4.0,5.0,96,0.00,,,0.00,VWS V14.01,2013-05-04 06:11:00,
2013-05-04 02:14:00,41.0,40.0,30.11,NNE,22,3.0,6.0,96,0.00,,,0.00,VWS V14.01,2013-05-04 06:14:00,
2013-05-04 02:15:00,41.0,40.0,30.11,NE,45,3.0,4.0,96,0.00,,,0.00,VWS V14.01,2013-05-04 06:15:00,
2013-05-04 02:16:00,41.0,40.0,30.11,NE,45,1.0,4.0,96,0.00,,,0.00,VWS V14.01,2013-05-04 06:16:00,
2013-05-04 02:17:00,41.0,40.0,30.11,NE,45,4.0,5.0,96,0.00,,,0.00,VWS V14.01,2013-05-04 06:17:00,
2013-05-04 02:20:00,41.0,40.0,30.11,NE,45,6.0,6.0,96,0.00,,,0.00,VWS V14.01,2013-05-04 06:20:00,
2013-05-04 02:21:00,41.0,40.0,30.11,NE,45,4.0,4.0,96,0.00,,,0.00,VWS V14.01,2013-05-04 06:21:00,
2013-05-04 02:23:00,41.0,40.0,30.11,NE,45,4.0,5.0,96,0.00,,,0.00,VWS V14.01,2013-05-04 06:23:00,
2013-05-04 02:26:00,41.0,40.0,30.11,NNE,22,4.0,4.0,96,0.00,,,0.00,VWS V14.01,2013-05-04 06:26:00,
2013-05-04 02:28:00,41.0,40.0,30.11,NNE,22,4.0,6.0,96,0.00,,,0.00,VWS V14.01,2013-05-04 06:28:00,
2013-05-04 02:29:00,41.0,40.0,30.11,NNE,22,6.0,6.0,96,0.00,,,0.00,VWS V14.01,2013-05-04 06:29:00,
2013-05-04 02:31:00,41.0,40.0,30.11,NNE,22,3.0,6.0,96,0.00,,,0.00,VWS V14.01,2013-05-04 06:31:00,
2013-05-04 02:32:00,41.0,40.0,30.11,NNE,22,4.0,4.0,96,0.00,,,0.00,VWS V14.01,2013-05-04 06:32:00,
2013-05-04 02:34:00,41.0,40.0,30.11,NNE,22,6.0,6.0,96,0.00,,,0.00,VWS V14.01,2013-05-04 06:34:00,
2013-05-04 02:35:00,41.0,40.0,30.11,NE,45,2.0,6.0,96,0.00,,,0.00,VWS V14.01,2013-05-04 06:35:00,
2013-05-04 02:37:00,41.0,40.0,30.11,NNE,22,2.0,5.0,96,0.00,,,0.00,VWS V14.01,2013-05-04 06:37:00,
2013-05-04 02:39:00,41.0,40.0,30.10,NNE,22,2.0,4.0,96,0.00,,,0.00,VWS V14.01,2013-05-04 06:39:00,
2013-05-04 02:40:00,41.0,40.0,30.10,NNE,22,5.0,5.0,96,0.00,,,0.00,VWS V14.01,2013-05-04 06:40:00,
2013-05-04 02:41:00,41.0,40.0,30.10,NNE,22,4.0,5.0,96,0.00,,,0.00,VWS V14.01,2013-05-04 06:41:00,
2013-05-04 02:42:00,41.0,40.0,30.10,NNE,22,1.0,2.0,96,0.00,,,0.00,VWS V14.01,2013-05-04 06:42:00,
2013-05-04 02:45:00,40.0,39.0,30.10,NNE,22,3.0,5.0,96,0.00,,,0.00,VWS V14.01,2013-05-04 06:45:00,
2013-05-04 02:46:00,41.0,40.0,30.10,NNE,22,4.0,4.0,96,0.00,,,0.00,VWS V14.01,2013-05-04 06:46:00,
2013-05-04 02:47:00,41.0,40.0,30.10,NNE,22,3.0,6.0,96,0.00,,,0.00,VWS V14.01,2013-05-04 06:47:00,
2013-05-04 02:50:00,41.0,40.0,30.10,NE,45,3.0,3.0,96,0.00,,,0.00,VWS V14.01,2013-05-04 06:50:00,
2013-05-04 02:52:00,41.0,40.0,30.10,NE,45,4.0,6.0,96,0.00,,,0.00,VWS V14.01,2013-05-04 06:52:00,
2013-05-04 02:53:00,41.0,40.0,30.10,NE,45,4.0,5.0,96,0.00,,,0.00,VWS V14.01,2013-05-04 06:53:00,
2013-05-04 02:55:00,41.0,40.0,30.10,NNE,22,3.0,6.0,96,0.00,,,0.00,VWS V14.01,2013-05-04 06:55:00,
2013-05-04 02:56:00,41.0,40.0,30.10,NNE,22,1.0,3.0,96,0.00,,,0.00,VWS V14.01,2013-05-04 06:56:00,
2013-05-04 02:58:00,41.0,40.0,30.10,NNE,22,4.0,5.0,96,0.00,,,0.00,VWS V14.01,2013-05-04 06:58:00,
2013-05-04 02:59:00,41.0,40.0,30.10,NNE,22,3.0,5.0,96,0.00,,,0.00,VWS V14.01,2013-05-04 06:59:00,
2013-05-04 03:00:00,41.0,40.0,30.10,NNE,22,4.0,4.0,96,0.00,,,0.00,VWS V14.01,2013-05-04 07:00:00,
2013-05-04 03:02:00,41.0,40.0,30.10,NNE,22,2.0,3.0,96,0.00,,,0.00,VWS V14.01,2013-05-04 07:02:00,
2013-05-04 03:03:00,41.0,40.0,30.10,NNE,22,2.0,4.0,96,0.00,,,0.00,VWS V14.01,2013-05-04 07:03:00,
2013-05-04 03:04:00,41.0,40.0,30.10,NNE,22,4.0,6.0,96,0.00,,,0.00,VWS V14.01,2013-05-04 07:04:00,
2013-05-04 03:05:00,41.0,40.0,30.10,NNE,22,1.0,6.0,96,0.00,,,0.00,VWS V14.01,2013-05-04 07:05:00,
2013-05-04 03:06:00,41.0,40.0,30.10,North,360,2.0,3.0,96,0.00,,,0.00,VWS V14.01,2013-05-04 07:06:00,
2013-05-04 03:07:00,41.0,40.0,30.10,North,360,1.0,3.0,96,0.00,,,0.00,VWS V14.01,2013-05-04 07:07:00,
2013-05-04 03:08:00,41.0,40.0,30.10,North,360,2.0,3.0,96,0.00,,,0.00,VWS V14.01,2013-05-04 07:08:00,
2013-05-04 03:10:00,41.0,40.0,30.10,North,360,3.0,3.0,96,0.00,,,0.00,VWS V14.01,2013-05-04 07:10:00,
2013-05-04 03:12:00,41.0,40.0,30.10,NNE,22,2.0,2.0,96,0.00,,,0.00,VWS V14.01,2013-05-04 07:12:00,
2013-05-04 03:13:00,41.0,40.0,30.10,NNE,22,1.0,3.0,96,0.00,,,0.00,VWS V14.01,2013-05-04 07:13:00,
2013-05-04 03:15:00,41.0,40.0,30.10,NNE,22,1.0,2.0,96,0.00,,,0.00,VWS V14.01,2013-05-04 07:15:00,
2013-05-04 03:18:00,41.0,40.0,30.10,NNE,22,2.0,5.0,96,0.00,,,0.00,VWS V14.01,2013-05-04 07:18:00,
2013-05-04 03:20:00,41.0,40.0,30.10,NNE,22,2.0,5.0,96,0.00,,,0.00,VWS V14.01,2013-05-04 07:20:00,
2013-05-04 03:21:00,41.0,40.0,30.10,NNE,22,0.0,2.0,96,0.00,,,0.00,VWS V14.01,2013-05-04 07:21:00,
2013-05-04 03:22:00,41.0,40.0,30.10,NNE,22,0.0,2.0,96,0.00,,,0.00,VWS V14.01,2013-05-04 07:22:00,
2013-05-04 03:23:00,41.0,40.0,30.10,NNE,22,1.0,2.0,96,0.00,,,0.00,VWS V14.01,2013-05-04 07:23:00,
2013-05-04 03:24:00,41.0,40.0,30.10,NNE,22,3.0,3.0,96,0.00,,,0.00,VWS V14.01,2013-05-04 07:24:00,
2013-05-04 03:26:00,41.0,40.0,30.10,NNE,22,2.0,3.0,96,0.00,,,0.00,VWS V14.01,2013-05-04 07:26:00,
2013-05-04 03:27:00,41.0,40.0,30.10,NNE,22,1.0,3.0,96,0.00,,,0.00,VWS V14.01,2013-05-04 07:27:00,
2013-05-04 03:28:00,41.0,40.0,30.10,NNE,22,5.0,5.0,96,0.00,,,0.00,VWS V14.01,2013-05-04 07:28:00,
2013-05-04 03:31:00,41.0,40.0,30.10,NNE,22,3.0,3.0,96,0.00,,,0.00,VWS V14.01,2013-05-04 07:31:00,
2013-05-04 03:32:00,41.0,40.0,30.10,NNE,22,2.0,5.0,96,0.00,,,0.00,VWS V14.01,2013-05-04 07:32:00,
2013-05-04 03:33:00,41.0,40.0,30.10,NNE,22,5.0,5.0,96,0.00,,,0.00,VWS V14.01,2013-05-04 07:33:00,
2013-05-04 03:34:00,41.0,40.0,30.10,NNE,22,1.0,5.0,96,0.00,,,0.00,VWS V14.01,2013-05-04 07:34:00,
2013-05-04 03:37:00,41.0,40.0,30.10,NNE,22,2.0,3.0,96,0.00,,,0.00,VWS V14.01,2013-05-04 07:37:00,
2013-05-04 03:39:00,41.0,40.0,30.10,NNE,22,2.0,2.0,96,0.00,,,0.00,VWS V14.01,2013-05-04 07:39:00,
2013-05-04 03:41:00,40.0,39.0,30.10,NNE,22,1.0,4.0,96,0.00,,,0.00,VWS V14.01,2013-05-04 07:41:00,
2013-05-04 03:43:00,40.0,39.0,30.10,NNE,22,3.0,3.0,96,0.00,,,0.00,VWS V14.01,2013-05-04 07:43:00,
2013-05-04 03:44:00,40.0,39.0,30.10,NNE,22,2.0,3.0,96,0.00,,,0.00,VWS V14.01,2013-05-04 07:44:00,
2013-05-04 03:45:00,40.0,39.0,30.10,NNE,22,3.0,3.0,96,0.00,,,0.00,VWS V14.01,2013-05-04 07:45:00,
2013-05-04 03:48:00,40.0,39.0,30.10,NNE,22,4.0,5.0,96,0.00,,,0.00,VWS V14.01,2013-05-04 07:48:00,
2013-05-04 03:49:00,41.0,40.0,30.10,NNE,22,3.0,5.0,96,0.00,,,0.00,VWS V14.01,2013-05-04 07:49:00,
2013-05-04 03:50:00,40.0,39.0,30.10,NNE,22,2.0,3.0,96,0.00,,,0.00,VWS V14.01,2013-05-04 07:50:00,
2013-05-04 03:51:00,40.0,39.0,30.10,NNE,22,3.0,4.0,96,0.00,,,0.00,VWS V14.01,2013-05-04 07:51:00,
2013-05-04 03:53:00,40.0,39.0,30.10,NNE,22,2.0,3.0,96,0.00,,,0.00,VWS V14.01,2013-05-04 07:53:00,
2013-05-04 03:54:00,40.0,39.0,30.10,NNE,22,2.0,4.0,96,0.00,,,0.00,VWS V14.01,2013-05-04 07:54:00,
2013-05-04 03:55:00,40.0,39.0,30.10,NNE,22,2.0,4.0,96,0.00,,,0.00,VWS V14.01,2013-05-04 07:55:00,
2013-05-04 03:58:00,40.0,39.0,30.10,NNE,22,4.0,5.0,96,0.00,,,0.00,VWS V14.01,2013-05-04 07:58:00,
2013-05-04 04:00:00,40.0,39.0,30.10,NNE,22,3.0,6.0,96,0.00,,,0.00,VWS V14.01,2013-05-04 08:00:00,
2013-05-04 04:01:00,40.0,39.0,30.10,NNE,22,3.0,6.0,96,0.00,,,0.00,VWS V14.01,2013-05-04 08:01:00,
2013-05-04 04:03:00,40.0,39.0,30.10,NE,45,3.0,5.0,96,0.00,,,0.00,VWS V14.01,2013-05-04 08:03:00,
2013-05-04 04:05:00,41.0,40.0,30.10,NNE,22,4.0,7.0,96,0.00,,,0.00,VWS V14.01,2013-05-04 08:05:00,
2013-05-04 04:06:00,41.0,40.0,30.10,NNE,22,6.0,6.0,96,0.00,,,0.00,VWS V14.01,2013-05-04 08:06:00,
2013-05-04 04:08:00,41.0,40.0,30.10,NE,45,6.0,6.0,96,0.00,,,0.00,VWS V14.01,2013-05-04 08:08:00,
2013-05-04 04:10:00,41.0,40.0,30.10,NE,45,4.0,5.0,96,0.00,,,0.00,VWS V14.01,2013-05-04 08:10:00,
2013-05-04 04:11:00,41.0,40.0,30.10,NE,45,3.0,4.0,96,0.00,,,0.00,VWS V14.01,2013-05-04 08:11:00,
2013-05-04 04:12:00,41.0,40.0,30.10,NNE,22,3.0,4.0,96,0.00,,,0.00,VWS V14.01,2013-05-04 08:12:00,
2013-05-04 04:15:00,41.0,40.0,30.10,NNE,22,2.0,4.0,96,0.00,,,0.00,VWS V14.01,2013-05-04 08:15:00,
2013-05-04 04:17:00,41.0,40.0,30.10,NE,45,6.0,6.0,96,0.00,,,0.00,VWS V14.01,2013-05-04 08:17:00,
2013-05-04 04:18:00,41.0,40.0,30.10,NE,45,4.0,7.0,96,0.00,,,0.00,VWS V14.01,2013-05-04 08:18:00,
2013-05-04 04:20:00,41.0,40.0,30.09,NE,45,3.0,6.0,96,0.00,,,0.00,VWS V14.01,2013-05-04 08:20:00,
2013-05-04 04:21:00,41.0,40.0,30.09,NE,45,4.0,6.0,96,0.00,,,0.00,VWS V14.01,2013-05-04 08:21:00,
2013-05-04 04:22:00,41.0,40.0,30.09,NE,45,7.0,7.0,96,0.00,,,0.00,VWS V14.01,2013-05-04 08:22:00,
2013-05-04 04:23:00,41.0,40.0,30.09,NE,45,4.0,7.0,96,0.00,,,0.00,VWS V14.01,2013-05-04 08:23:00,
2013-05-04 04:26:00,41.0,40.0,30.09,NNE,22,7.0,7.0,96,0.00,,,0.00,VWS V14.01,2013-05-04 08:26:00,
2013-05-04 04:27:00,41.0,40.0,30.09,NE,45,5.0,6.0,96,0.00,,,0.00,VWS V14.01,2013-05-04 08:27:00,
2013-05-04 04:28:00,41.0,40.0,30.09,NE,45,6.0,7.0,96,0.00,,,0.00,VWS V14.01,2013-05-04 08:28:00,
2013-05-04 04:32:00,41.0,40.0,30.09,NE,45,4.0,6.0,96,0.00,,,0.00,VWS V14.01,2013-05-04 08:32:00,
2013-05-04 04:33:00,41.0,40.0,30.09,NE,45,4.0,5.0,96,0.00,,,0.00,VWS V14.01,2013-05-04 08:33:00,
2013-05-04 04:34:00,41.0,40.0,30.09,NNE,22,6.0,6.0,96,0.00,,,0.00,VWS V14.01,2013-05-04 08:34:00,
2013-05-04 04:35:00,41.0,40.0,30.09,NNE,22,4.0,5.0,96,0.00,,,0.00,VWS V14.01,2013-05-04 08:35:00,
2013-05-04 04:39:00,41.0,40.0,30.10,NE,45,2.0,2.0,96,0.00,,,0.00,VWS V14.01,2013-05-04 08:39:00,
2013-05-04 04:40:00,41.0,40.0,30.10,NNE,22,6.0,7.0,96,0.00,,,0.00,VWS V14.01,2013-05-04 08:40:00,
2013-05-04 04:41:00,41.0,40.0,30.10,NNE,22,3.0,6.0,96,0.00,,,0.00,VWS V14.01,2013-05-04 08:41:00,
2013-05-04 04:43:00,41.0,40.0,30.10,NE,45,4.0,5.0,96,0.00,,,0.00,VWS V14.01,2013-05-04 08:43:00,
2013-05-04 04:44:00,41.0,40.0,30.10,NNE,22,1.0,6.0,96,0.00,,,0.00,VWS V14.01,2013-05-04 08:44:00,
2013-05-04 04:45:00,41.0,40.0,30.10,NE,45,7.0,7.0,96,0.00,,,0.00,VWS V14.01,2013-05-04 08:45:00,
2013-05-04 04:46:00,41.0,40.0,30.10,NE,45,5.0,7.0,96,0.00,,,0.00,VWS V14.01,2013-05-04 08:46:00,
2013-05-04 04:48:00,41.0,40.0,30.10,East,90,1.0,1.0,96,0.00,,,0.00,VWS V14.01,2013-05-04 08:48:00,
2013-05-04 04:50:00,41.0,40.0,30.10,ENE,67,4.0,4.0,96,0.00,,,0.00,VWS V14.01,2013-05-04 08:50:00,
2013-05-04 04:51:00,41.0,40.0,30.10,ENE,67,6.0,7.0,96,0.00,,,0.00,VWS V14.01,2013-05-04 08:51:00,
2013-05-04 04:52:00,41.0,40.0,30.10,East,90,3.0,6.0,96,0.00,,,0.00,VWS V14.01,2013-05-04 08:52:00,
2013-05-04 04:54:00,41.0,40.0,30.10,ENE,67,4.0,5.0,96,0.00,,,0.00,VWS V14.01,2013-05-04 08:54:00,
2013-05-04 04:56:00,41.0,40.0,30.10,ENE,67,2.0,3.0,96,0.00,,,0.00,VWS V14.01,2013-05-04 08:56:00,
2013-05-04 04:57:00,41.0,40.0,30.10,ENE,67,2.0,3.0,96,0.00,,,0.00,VWS V14.01,2013-05-04 08:57:00,
2013-05-04 05:00:00,42.0,40.9,30.09,ENE,67,3.0,5.0,96,0.00,,,0.00,VWS V14.01,2013-05-04 09:00:00,
2013-05-04 05:01:00,42.0,40.9,30.09,ENE,67,3.0,4.0,96,0.00,,,0.00,VWS V14.01,2013-05-04 09:01:00,
2013-05-04 05:02:00,42.0,40.9,30.09,ENE,67,4.0,4.0,96,0.00,,,0.00,VWS V14.01,2013-05-04 09:02:00,
2013-05-04 05:03:00,42.0,40.9,30.09,ENE,67,4.0,4.0,96,0.00,,,0.00,VWS V14.01,2013-05-04 09:03:00,
2013-05-04 05:06:00,42.0,40.9,30.09,NE,45,2.0,5.0,96,0.00,,,0.00,VWS V14.01,2013-05-04 09:06:00,
2013-05-04 05:09:00,42.0,40.9,30.09,NE,45,4.0,4.0,96,0.00,,,0.00,VWS V14.01,2013-05-04 09:09:00,
2013-05-04 05:11:00,42.0,40.9,30.09,NE,45,1.0,6.0,96,0.00,,,0.00,VWS V14.01,2013-05-04 09:11:00,
2013-05-04 05:12:00,42.0,40.9,30.09,NE,45,5.0,5.0,96,0.00,,,0.00,VWS V14.01,2013-05-04 09:12:00,
2013-05-04 05:14:00,42.0,40.9,30.09,ENE,67,2.0,5.0,96,0.00,,,0.00,VWS V14.01,2013-05-04 09:14:00,
2013-05-04 05:16:00,42.0,40.9,30.09,ENE,67,5.0,6.0,96,0.00,,,0.00,VWS V14.01,2013-05-04 09:16:00,
2013-05-04 05:17:00,42.0,40.9,30.09,ENE,67,1.0,3.0,96,0.00,,,0.00,VWS V14.01,2013-05-04 09:17:00,
2013-05-04 05:18:00,42.0,40.9,30.09,ENE,67,0.0,1.0,96,0.00,,,0.00,VWS V14.01,2013-05-04 09:18:00,
2013-05-04 05:19:00,42.0,40.9,30.09,East,90,3.0,4.0,96,0.00,,,0.00,VWS V14.01,2013-05-04 09:19:00,
2013-05-04 05:21:00,42.0,40.9,30.09,East,90,1.0,1.0,96,0.00,,,0.00,VWS V14.01,2013-05-04 09:21:00,
2013-05-04 05:22:00,42.0,40.9,30.09,ENE,67,4.0,4.0,96,0.00,,,0.00,VWS V14.01,2013-05-04 09:22:00,
2013-05-04 05:23:00,42.0,40.9,30.09,ENE,67,7.0,7.0,96,0.00,,,0.00,VWS V14.01,2013-05-04 09:23:00,
2013-05-04 05:24:00,42.0,40.9,30.09,ENE,67,1.0,7.0,96,0.00,,,0.00,VWS V14.01,2013-05-04 09:24:00,
2013-05-04 05:26:00,42.0,40.9,30.09,NE,45,3.0,5.0,96,0.00,,,0.00,VWS V14.01,2013-05-04 09:26:00,
2013-05-04 05:28:00,42.0,40.9,30.09,NE,45,2.0,4.0,96,0.00,,,0.00,VWS V14.01,2013-05-04 09:28:00,
2013-05-04 05:30:00,42.0,40.9,30.09,NE,45,3.0,4.0,96,0.00,,,0.00,VWS V14.01,2013-05-04 09:30:00,
2013-05-04 05:32:00,42.0,40.9,30.09,NE,45,1.0,1.0,96,0.00,,,0.00,VWS V14.01,2013-05-04 09:32:00,
2013-05-04 05:33:00,42.0,40.9,30.09,NE,45,0.0,1.0,96,0.00,,,0.00,VWS V14.01,2013-05-04 09:33:00,
2013-05-04 05:34:00,42.0,40.9,30.09,NE,45,1.0,2.0,96,0.00,,,0.00,VWS V14.01,2013-05-04 09:34:00,
2013-05-04 05:35:00,41.0,40.0,30.09,NNE,22,3.0,3.0,96,0.00,,,0.00,VWS V14.01,2013-05-04 09:35:00,
2013-05-04 05:38:00,41.0,40.0,30.09,NNE,22,1.0,2.0,96,0.00,,,0.00,VWS V14.01,2013-05-04 09:38:00,
2013-05-04 05:39:00,41.0,40.0,30.10,NNE,22,2.0,3.0,96,0.00,,,0.00,VWS V14.01,2013-05-04 09:39:00,
2013-05-04 05:40:00,41.0,40.0,30.10,NNE,22,3.0,4.0,96,0.00,,,0.00,VWS V14.01,2013-05-04 09:40:00,
2013-05-04 05:41:00,41.0,40.0,30.10,NE,45,4.0,6.0,96,0.00,,,0.00,VWS V14.01,2013-05-04 09:41:00,
2013-05-04 05:43:00,41.0,40.0,30.10,NE,45,3.0,4.0,96,0.00,,,0.00,VWS V14.01,2013-05-04 09:43:00,
2013-05-04 05:44:00,41.0,40.0,30.10,NE,45,2.0,3.0,96,0.00,,,0.00,VWS V14.01,2013-05-04 09:44:00,
2013-05-04 05:46:00,41.0,40.0,30.10,NE,45,4.0,4.0,96,0.00,,,0.00,VWS V14.01,2013-05-04 09:46:00,
2013-05-04 05:47:00,41.0,40.0,30.10,NE,45,2.0,4.0,96,0.00,,,0.00,VWS V14.01,2013-05-04 09:47:00,
2013-05-04 05:48:00,70.0,69.7,29.72,SSW,202,5.0,6.0,99,0.00,,,0.00,VWS V14.01,2013-05-04 09:48:00,
2013-05-04 05:49:00,41.0,40.0,30.10,NE,45,4.0,5.0,96,0.00,,,0.00,VWS V14.01,2013-05-04 09:49:00,
2013-05-04 05:50:00,70.0,69.7,29.72,SW,225,5.0,6.0,99,0.00,,,0.00,VWS V14.01,2013-05-04 09:50:00,
2013-05-04 05:51:00,41.0,40.0,30.10,NE,45,3.0,3.0,96,0.00,,,0.00,VWS V14.01,2013-05-04 09:51:00,
2013-05-04 05:52:00,41.0,40.0,30.10,NE,45,3.0,3.0,96,0.00,,,0.00,VWS V14.01,2013-05-04 09:52:00,
2013-05-04 05:53:00,70.0,69.7,29.73,SW,225,3.0,4.0,99,0.00,,,0.00,VWS V14.01,2013-05-04 09:53:00,
2013-05-04 05:54:00,70.0,69.7,29.73,SW,225,3.0,4.0,99,0.00,,,0.00,VWS V14.01,2013-05-04 09:54:00,
2013-05-04 05:55:00,41.0,40.0,30.10,NE,45,3.0,4.0,96,0.00,,,0.00,VWS V14.01,2013-05-04 09:55:00,
2013-05-04 05:56:00,41.0,40.0,30.10,NE,45,1.0,4.0,96,0.00,,,0.00,VWS V14.01,2013-05-04 09:56:00,
2013-05-04 05:57:00,41.0,40.0,30.10,NE,45,2.0,3.0,96,0.00,,,0.00,VWS V14.01,2013-05-04 09:57:00,
2013-05-04 05:58:00,41.0,40.0,30.10,NE,45,1.0,3.0,96,0.00,,,0.00,VWS V14.01,2013-05-04 09:58:00,
2013-05-04 05:59:00,70.0,69.7,29.73,SW,225,2.0,3.0,99,0.00,,,0.00,VWS V14.01,2013-05-04 09:59:00,
2013-05-04 06:00:00,70.0,69.7,29.73,SW,225,3.0,4.0,99,0.00,,,0.00,VWS V14.01,2013-05-04 10:00:00,
2013-05-04 06:01:00,70.0,69.7,29.73,SW,225,2.0,4.0,99,0.00,,,0.00,VWS V14.01,2013-05-04 10:01:00,
2013-05-04 06:02:00,70.0,69.7,29.73,SW,225,0.0,2.0,99,0.00,,,0.00,VWS V14.01,2013-05-04 10:02:00,
2013-05-04 06:03:00,41.0,40.0,30.10,NE,45,3.0,3.0,96,0.00,,,0.00,VWS V14.01,2013-05-04 10:03:00,
2013-05-04 06:04:00,41.0,40.0,30.10,NE,45,2.0,3.0,96,0.00,,,0.00,VWS V14.01,2013-05-04 10:04:00,
2013-05-04 06:05:00,41.0,40.0,30.10,NE,45,3.0,4.0,96,0.00,,,0.00,VWS V14.01,2013-05-04 10:05:00,
2013-05-04 06:06:00,70.0,69.7,29.73,SW,225,2.0,3.0,99,0.00,,,0.00,VWS V14.01,2013-05-04 10:06:00,
2013-05-04 06:07:00,70.0,69.7,29.73,SW,225,4.0,4.0,99,0.00,,,0.00,VWS V14.01,2013-05-04 10:07:00,
2013-05-04 06:08:00,41.0,40.0,30.10,NE,45,1.0,3.0,96,0.00,,,0.00,VWS V14.01,2013-05-04 10:08:00,
2013-05-04 06:09:00,41.0,40.0,30.11,NE,45,2.0,3.0,96,0.00,,,0.00,VWS V14.01,2013-05-04 10:09:00,
2013-05-04 06:10:00,69.0,68.7,29.73,SW,225,2.0,3.0,99,0.00,,,0.00,VWS V14.01,2013-05-04 10:10:00,
2013-05-04 06:11:00,41.0,40.0,30.11,NE,45,2.0,5.0,96,0.00,,,0.00,VWS V14.01,2013-05-04 10:11:00,
2013-05-04 06:12:00,69.0,68.7,29.72,SW,225,0.0,2.0,99,0.00,,,0.00,VWS V14.01,2013-05-04 10:12:00,
2013-05-04 06:13:00,42.0,40.9,30.11,NE,45,2.0,2.0,96,0.00,,,0.00,VWS V14.01,2013-05-04 10:13:00,
2013-05-04 06:14:00,42.0,40.9,30.11,NE,45,3.0,3.0,96,0.00,,,0.00,VWS V14.01,2013-05-04 10:14:00,
2013-05-04 06:15:00,69.0,68.7,29.72,SW,225,0.0,0.0,99,0.00,,,0.00,VWS V14.01,2013-05-04 10:15:00,
2013-05-04 06:16:00,42.0,40.9,30.11,NE,45,1.0,5.0,96,0.00,,,0.00,VWS V14.01,2013-05-04 10:16:00,
2013-05-04 06:17:00,42.0,40.9,30.11,NE,45,2.0,4.0,96,0.00,,,0.00,VWS V14.01,2013-05-04 10:17:00,
2013-05-04 06:18:00,42.0,40.9,30.11,NE,45,3.0,3.0,96,0.00,,,0.00,VWS V14.01,2013-05-04 10:18:00,
2013-05-04 06:20:00,42.0,40.9,30.10,NE,45,1.0,2.0,96,0.00,,,0.00,VWS V14.01,2013-05-04 10:20:00,
2013-05-04 06:21:00,69.0,68.7,29.72,SW,225,2.0,2.0,99,0.00,,,0.00,VWS V14.01,2013-05-04 10:21:00,
2013-05-04 06:22:00,42.0,40.9,30.10,NE,45,3.0,4.0,96,0.00,,,0.00,VWS V14.01,2013-05-04 10:22:00,
2013-05-04 06:23:00,42.0,40.9,30.10,NE,45,3.0,3.0,96,0.00,,,0.00,VWS V14.01,2013-05-04 10:23:00,
2013-05-04 06:24:00,42.0,40.9,30.10,NE,45,0.0,4.0,96,0.00,,,0.00,VWS V14.01,2013-05-04 10:24:00,
2013-05-04 06:25:00,42.0,40.9,30.10,NE,45,2.0,3.0,96,0.00,,,0.00,VWS V14.01,2013-05-04 10:25:00,
2013-05-04 06:26:00,42.0,40.9,30.10,NE,45,2.0,4.0,96,0.00,,,0.00,VWS V14.01,2013-05-04 10:26:00,
2013-05-04 06:28:00,42.0,40.9,30.10,NE,45,3.0,4.0,96,0.00,,,0.00,VWS V14.01,2013-05-04 10:28:00,
2013-05-04 06:29:00,43.0,41.9,30.10,NE,45,3.0,3.0,96,0.00,,,0.00,VWS V14.01,2013-05-04 10:29:00,
2013-05-04 06:31:00,42.0,40.9,30.10,NE,45,2.0,5.0,96,0.00,,,0.00,VWS V14.01,2013-05-04 10:31:00,
2013-05-04 06:32:00,42.0,40.9,30.10,NE,45,2.0,3.0,96,0.00,,,0.00,VWS V14.01,2013-05-04 10:32:00,
2013-05-04 06:33:00,42.0,40.9,30.10,NE,45,1.0,2.0,96,0.00,,,0.00,VWS V14.01,2013-05-04 10:33:00,
2013-05-04 06:35:00,43.0,41.9,30.10,NNE,22,4.0,6.0,96,0.00,,,0.00,VWS V14.01,2013-05-04 10:35:00,
2013-05-04 06:36:00,43.0,41.9,30.10,NNE,22,3.0,6.0,96,0.00,,,0.00,VWS V14.01,2013-05-04 10:36:00,
2013-05-04 06:38:00,43.0,41.9,30.10,NNE,22,5.0,5.0,96,0.00,,,0.00,VWS V14.01,2013-05-04 10:38:00,
2013-05-04 06:39:00,43.0,41.9,30.10,NNE,22,5.0,5.0,96,0.00,,,0.00,VWS V14.01,2013-05-04 10:39:00,
2013-05-04 06:41:00,43.0,41.9,30.10,NE,45,3.0,5.0,96,0.00,,,0.00,VWS V14.01,2013-05-04 10:41:00,
2013-05-04 06:42:00,43.0,41.9,30.10,NE,45,4.0,5.0,96,0.00,,,0.00,VWS V14.01,2013-05-04 10:42:00,
2013-05-04 06:43:00,44.0,43.2,30.10,NE,45,3.0,6.0,97,0.00,,,0.00,VWS V14.01,2013-05-04 10:43:00,
2013-05-04 06:44:00,44.0,43.2,30.10,NE,45,3.0,3.0,97,0.00,,,0.00,VWS V14.01,2013-05-04 10:44:00,
2013-05-04 06:45:00,44.0,43.2,30.10,NE,45,3.0,4.0,97,0.00,,,0.00,VWS V14.01,2013-05-04 10:45:00,
2013-05-04 06:47:00,44.0,43.2,30.10,NE,45,4.0,6.0,97,0.00,,,0.00,VWS V14.01,2013-05-04 10:47:00,
2013-05-04 06:48:00,44.0,43.2,30.10,NNE,22,6.0,7.0,97,0.00,,,0.00,VWS V14.01,2013-05-04 10:48:00,
2013-05-04 06:49:00,44.0,43.2,30.10,NNE,22,4.0,6.0,97,0.00,,,0.00,VWS V14.01,2013-05-04 10:49:00,
2013-05-04 06:51:00,44.0,43.2,30.10,NE,45,3.0,4.0,97,0.00,,,0.00,VWS V14.01,2013-05-04 10:51:00,
2013-05-04 06:53:00,45.0,44.2,30.10,NE,45,4.0,6.0,97,0.00,,,0.00,VWS V14.01,2013-05-04 10:53:00,
2013-05-04 06:54:00,45.0,44.2,30.10,NE,45,5.0,5.0,97,0.00,,,0.00,VWS V14.01,2013-05-04 10:54:00,
2013-05-04 06:55:00,45.0,44.2,30.10,NNE,22,4.0,6.0,97,0.00,,,0.00,VWS V14.01,2013-05-04 10:55:00,
2013-05-04 06:56:00,45.0,44.2,30.10,NNE,22,0.0,0.0,97,0.00,,,0.00,VWS V14.01,2013-05-04 10:56:00,
2013-05-04 06:57:00,45.0,44.2,30.10,NE,45,7.0,8.0,97,0.00,,,0.00,VWS V14.01,2013-05-04 10:57:00,
2013-05-04 07:00:00,45.0,44.2,30.10,NE,45,4.0,6.0,97,0.00,,,0.00,VWS V14.01,2013-05-04 11:00:00,
2013-05-04 07:01:00,45.0,44.2,30.10,ENE,67,3.0,4.0,97,0.00,,,0.00,VWS V14.01,2013-05-04 11:01:00,
2013-05-04 07:02:00,45.0,44.2,30.10,NNE,22,3.0,6.0,97,0.00,,,0.00,VWS V14.01,2013-05-04 11:02:00,
2013-05-04 07:03:00,45.0,44.2,30.10,NE,45,5.0,5.0,97,0.00,,,0.00,VWS V14.01,2013-05-04 11:03:00,
2013-05-04 07:05:00,45.0,44.2,30.10,NE,45,4.0,6.0,97,0.00,,,0.00,VWS V14.01,2013-05-04 11:05:00,
2013-05-04 07:07:00,45.0,44.2,30.10,NE,45,6.0,6.0,97,0.00,,,0.00,VWS V14.01,2013-05-04 11:07:00,
2013-05-04 07:09:00,46.0,45.2,30.10,NE,45,3.0,6.0,97,0.00,,,0.00,VWS V14.01,2013-05-04 11:09:00,
2013-05-04 07:11:00,46.0,45.2,30.10,NE,45,3.0,5.0,97,0.00,,,0.00,VWS V14.01,2013-05-04 11:11:00,
2013-05-04 07:12:00,46.0,45.2,30.10,NE,45,6.0,6.0,97,0.00,,,0.00,VWS V14.01,2013-05-04 11:12:00,
2013-05-04 07:14:00,46.0,45.2,30.10,NE,45,6.0,6.0,97,0.00,,,0.00,VWS V14.01,2013-05-04 11:14:00,
2013-05-04 07:17:00,46.0,45.2,30.10,East,90,5.0,5.0,97,0.00,,,0.00,VWS V14.01,2013-05-04 11:17:00,
2013-05-04 07:18:00,46.0,45.2,30.10,East,90,4.0,6.0,97,0.00,,,0.00,VWS V14.01,2013-05-04 11:18:00,
2013-05-04 07:20:00,46.0,45.2,30.10,ESE,112,5.0,5.0,97,0.00,,,0.00,VWS V14.01,2013-05-04 11:20:00,
2013-05-04 07:21:00,46.0,45.2,30.10,East,90,4.0,7.0,97,0.00,,,0.00,VWS V14.01,2013-05-04 11:21:00,
2013-05-04 07:22:00,46.0,45.2,30.10,NE,45,5.0,10.0,97,0.00,,,0.00,VWS V14.01,2013-05-04 11:22:00,
2013-05-04 07:23:00,47.0,46.2,30.10,ENE,67,2.0,6.0,97,0.00,,,0.00,VWS V14.01,2013-05-04 11:23:00,
2013-05-04 07:25:00,47.0,45.9,30.10,ENE,67,4.0,6.0,96,0.00,,,0.00,VWS V14.01,2013-05-04 11:25:00,
2013-05-04 07:27:00,47.0,45.4,30.10,NE,45,7.0,10.0,94,0.00,,,0.00,VWS V14.01,2013-05-04 11:27:00,
2013-05-04 07:28:00,47.0,45.4,30.10,ENE,67,6.0,8.0,94,0.00,,,0.00,VWS V14.01,2013-05-04 11:28:00,
2013-05-04 07:30:00,47.0,45.1,30.09,NE,45,7.0,9.0,93,0.00,,,0.00,VWS V14.01,2013-05-04 11:30:00,
2013-05-04 07:31:00,47.0,45.1,30.09,NE,45,7.0,7.0,93,0.00,,,0.00,VWS V14.01,2013-05-04 11:31:00,
2013-05-04 07:33:00,47.0,44.8,30.09,East,90,5.0,7.0,92,0.00,,,0.00,VWS V14.01,2013-05-04 11:33:00,
2013-05-04 07:34:00,47.0,44.8,30.09,NE,45,3.0,8.0,92,0.00,,,0.00,VWS V14.01,2013-05-04 11:34:00,
2013-05-04 07:35:00,47.0,44.8,30.09,NE,45,4.0,6.0,92,0.00,,,0.00,VWS V14.01,2013-05-04 11:35:00,
2013-05-04 07:36:00,47.0,44.8,30.09,NNE,22,5.0,9.0,92,0.00,,,0.00,VWS V14.01,2013-05-04 11:36:00,
2013-05-04 07:38:00,48.0,45.5,30.09,East,90,5.0,6.0,91,0.00,,,0.00,VWS V14.01,2013-05-04 11:38:00,
2013-05-04 07:39:00,48.0,45.5,30.09,East,90,3.0,6.0,91,0.00,,,0.00,VWS V14.01,2013-05-04 11:39:00,
2013-05-04 07:40:00,48.0,45.2,30.09,NNE,22,6.0,7.0,90,0.00,,,0.00,VWS V14.01,2013-05-04 11:40:00,
2013-05-04 07:41:00,48.0,45.2,30.09,NNE,22,7.0,7.0,90,0.00,,,0.00,VWS V14.01,2013-05-04 11:41:00,
2013-05-04 07:44:00,48.0,44.9,30.09,ESE,112,6.0,6.0,89,0.00,,,0.00,VWS V14.01,2013-05-04 11:44:00,
2013-05-04 07:46:00,48.0,44.6,30.09,NNE,22,3.0,8.0,88,0.00,,,0.00,VWS V14.01,2013-05-04 11:46:00,
2013-05-04 07:47:00,48.0,44.6,30.09,NE,45,6.0,7.0,88,0.00,,,0.00,VWS V14.01,2013-05-04 11:47:00,
2013-05-04 07:49:00,49.0,45.6,30.09,ENE,67,4.0,6.0,88,0.00,,,0.00,VWS V14.01,2013-05-04 11:49:00,
2013-05-04 07:50:00,49.0,45.6,30.09,NNE,22,6.0,9.0,88,0.00,,,0.00,VWS V14.01,2013-05-04 11:50:00,
2013-05-04 07:52:00,49.0,45.3,30.09,NNE,22,6.0,8.0,87,0.00,,,0.00,VWS V14.01,2013-05-04 11:52:00,
2013-05-04 07:54:00,49.0,45.0,30.09,NE,45,9.0,10.0,86,0.00,,,0.00,VWS V14.01,2013-05-04 11:54:00,
2013-05-04 07:55:00,49.0,45.0,30.09,NNE,22,6.0,10.0,86,0.00,,,0.00,VWS V14.01,2013-05-04 11:55:00,
2013-05-04 07:57:00,49.0,45.0,30.09,ESE,112,6.0,6.0,86,0.00,,,0.00,VWS V14.01,2013-05-04 11:57:00,
2013-05-04 07:59:00,49.0,45.3,30.10,NE,45,7.0,7.0,87,0.00,,,0.00,VWS V14.01,2013-05-04 11:59:00,
2013-05-04 08:00:00,49.0,45.0,30.10,East,90,5.0,7.0,86,0.00,,,0.00,VWS V14.01,2013-05-04 12:00:00,
2013-05-04 08:04:00,50.0,45.4,30.10,NNE,22,4.0,9.0,84,0.00,,,0.00,VWS V14.01,2013-05-04 12:04:00,
2013-05-04 08:05:00,50.0,45.0,30.10,NNE,22,10.0,12.0,83,0.00,,,0.00,VWS V14.01,2013-05-04 12:05:00,
2013-05-04 08:06:00,50.0,44.7,30.10,NNE,22,8.0,10.0,82,0.00,,,0.00,VWS V14.01,2013-05-04 12:06:00,
2013-05-04 08:10:00,50.0,44.4,30.09,North,360,4.0,12.0,81,0.00,,,0.00,VWS V14.01,2013-05-04 12:10:00,
2013-05-04 08:11:00,50.0,44.4,30.09,North,360,0.0,6.0,81,0.00,,,0.00,VWS V14.01,2013-05-04 12:11:00,
2013-05-04 08:14:00,50.0,44.4,30.09,NNE,22,9.0,9.0,81,0.00,,,0.00,VWS V14.01,2013-05-04 12:14:00,
2013-05-04 08:16:00,50.0,44.1,30.09,ENE,67,8.0,10.0,80,0.00,,,0.00,VWS V14.01,2013-05-04 12:16:00,
2013-05-04 08:18:00,50.0,43.4,30.09,ENE,67,7.0,10.0,78,0.00,,,0.00,VWS V14.01,2013-05-04 12:18:00,
2013-05-04 08:19:00,50.0,43.4,30.09,NE,45,9.0,12.0,78,0.00,,,0.00,VWS V14.01,2013-05-04 12:19:00,
2013-05-04 08:21:00,50.0,42.7,30.09,NE,45,10.0,12.0,76,0.00,,,0.00,VWS V14.01,2013-05-04 12:21:00,
2013-05-04 08:23:00,50.0,42.7,30.09,NE,45,7.0,12.0,76,0.00,,,0.00,VWS V14.01,2013-05-04 12:23:00,
2013-05-04 08:24:00,51.0,44.4,30.09,East,90,4.0,8.0,78,0.00,,,0.00,VWS V14.01,2013-05-04 12:24:00,
2013-05-04 08:26:00,51.0,44.0,30.09,East,90,6.0,7.0,77,0.00,,,0.00,VWS V14.01,2013-05-04 12:26:00,
2013-05-04 08:27:00,51.0,43.4,30.09,ESE,112,6.0,8.0,75,0.00,,,0.00,VWS V14.01,2013-05-04 12:27:00,
2013-05-04 08:28:00,51.0,43.4,30.09,East,90,9.0,9.0,75,0.00,,,0.00,VWS V14.01,2013-05-04 12:28:00,
2013-05-04 08:29:00,51.0,42.3,30.10,ESE,112,9.0,9.0,72,0.00,,,0.00,VWS V14.01,2013-05-04 12:29:00,
2013-05-04 08:33:00,50.0,40.6,30.10,ENE,67,7.0,16.0,70,0.00,,,0.00,VWS V14.01,2013-05-04 12:33:00,
2013-05-04 08:35:00,51.0,40.8,30.10,NNE,22,9.0,13.0,68,0.00,,,0.00,VWS V14.01,2013-05-04 12:35:00,
2013-05-04 08:38:00,51.0,40.8,30.10,NNE,22,8.0,8.0,68,0.00,,,0.00,VWS V14.01,2013-05-04 12:38:00,
2013-05-04 08:39:00,51.0,41.2,30.10,ENE,67,9.0,15.0,69,0.00,,,0.00,VWS V14.01,2013-05-04 12:39:00,
2013-05-04 08:40:00,51.0,40.8,30.10,NNW,337,5.0,9.0,68,0.00,,,0.00,VWS V14.01,2013-05-04 12:40:00,
2013-05-04 08:43:00,51.0,41.2,30.10,ENE,67,9.0,9.0,69,0.00,,,0.00,VWS V14.01,2013-05-04 12:43:00,
2013-05-04 08:44:00,51.0,40.8,30.10,NE,45,6.0,9.0,68,0.00,,,0.00,VWS V14.01,2013-05-04 12:44:00,
2013-05-04 08:46:00,51.0,40.1,30.10,NE,45,13.0,15.0,66,0.00,,,0.00,VWS V14.01,2013-05-04 12:46:00,
2013-05-04 08:47:00,51.0,40.1,30.10,ENE,67,7.0,10.0,66,0.00,,,0.00,VWS V14.01,2013-05-04 12:47:00,
2013-05-04 08:49:00,51.0,40.1,30.10,NE,45,10.0,12.0,66,0.00,,,0.00,VWS V14.01,2013-05-04 12:49:00,
2013-05-04 08:51:00,51.0,40.4,30.10,NNE,22,11.0,11.0,67,0.00,,,0.00,VWS V14.01,2013-05-04 12:51:00,
2013-05-04 08:53:00,52.0,41.4,30.10,ENE,67,7.0,12.0,67,0.00,,,0.00,VWS V14.01,2013-05-04 12:53:00,
2013-05-04 08:54:00,51.0,40.1,30.10,ESE,112,10.0,14.0,66,0.00,,,0.00,VWS V14.01,2013-05-04 12:54:00,
2013-05-04 08:56:00,52.0,41.4,30.10,ENE,67,10.0,11.0,67,0.00,,,0.00,VWS V14.01,2013-05-04 12:56:00,
2013-05-04 08:58:00,51.0,40.8,30.10,ENE,67,13.0,16.0,68,0.00,,,0.00,VWS V14.01,2013-05-04 12:58:00,
2013-05-04 08:59:00,51.0,40.8,30.10,ENE,67,6.0,7.0,68,0.00,,,0.00,VWS V14.01,2013-05-04 12:59:00,
2013-05-04 09:01:00,52.0,41.8,30.10,East,90,6.0,10.0,68,0.00,,,0.00,VWS V14.01,2013-05-04 13:01:00,
2013-05-04 09:04:00,52.0,41.0,30.10,NNE,22,8.0,13.0,66,0.00,,,0.00,VWS V14.01,2013-05-04 13:04:00,
2013-05-04 09:06:00,52.0,41.0,30.10,East,90,11.0,15.0,66,0.00,,,0.00,VWS V14.01,2013-05-04 13:06:00,
2013-05-04 09:07:00,51.0,40.1,30.10,NE,45,10.0,15.0,66,0.00,,,0.00,VWS V14.01,2013-05-04 13:07:00,
2013-05-04 09:10:00,51.0,40.8,30.10,ENE,67,5.0,12.0,68,0.00,,,0.00,VWS V14.01,2013-05-04 13:10:00,
2013-05-04 09:11:00,51.0,40.4,30.10,ENE,67,10.0,14.0,67,0.00,,,0.00,VWS V14.01,2013-05-04 13:11:00,
2013-05-04 09:12:00,51.0,40.8,30.10,ENE,67,13.0,20.0,68,0.00,,,0.00,VWS V14.01,2013-05-04 13:12:00,
2013-05-04 09:16:00,51.0,40.4,30.10,ENE,67,8.0,15.0,67,0.00,,,0.00,VWS V14.01,2013-05-04 13:16:00,
2013-05-04 09:17:00,51.0,39.7,30.10,ENE,67,19.0,19.0,65,0.00,,,0.00,VWS V14.01,2013-05-04 13:17:00,
2013-05-04 09:19:00,51.0,40.4,30.10,East,90,6.0,17.0,67,0.00,,,0.00,VWS V14.01,2013-05-04 13:19:00,
2013-05-04 09:21:00,51.0,40.4,30.10,ESE,112,6.0,10.0,67,0.00,,,0.00,VWS V14.01,2013-05-04 13:21:00,
2013-05-04 09:22:00,51.0,40.1,30.10,ENE,67,9.0,13.0,66,0.00,,,0.00,VWS V14.01,2013-05-04 13:22:00,
2013-05-04 09:24:00,51.0,40.4,30.10,ESE,112,8.0,17.0,67,0.00,,,0.00,VWS V14.01,2013-05-04 13:24:00,
2013-05-04 09:25:00,51.0,40.4,30.10,East,90,15.0,15.0,67,0.00,,,0.00,VWS V14.01,2013-05-04 13:25:00,
2013-05-04 09:26:00,51.0,39.7,30.10,ENE,67,11.0,18.0,65,0.00,,,0.00,VWS V14.01,2013-05-04 13:26:00,
2013-05-04 09:28:00,51.0,40.1,30.10,East,90,12.0,17.0,66,0.00,,,0.00,VWS V14.01,2013-05-04 13:28:00,
2013-05-04 09:29:00,51.0,39.7,30.10,ESE,112,13.0,15.0,65,0.00,,,0.00,VWS V14.01,2013-05-04 13:29:00,
2013-05-04 09:32:00,51.0,39.7,30.10,ENE,67,9.0,15.0,65,0.00,,,0.00,VWS V14.01,2013-05-04 13:32:00,
2013-05-04 09:33:00,51.0,40.1,30.10,East,90,10.0,16.0,66,0.00,,,0.00,VWS V14.01,2013-05-04 13:33:00,
2013-05-04 09:34:00,51.0,40.1,30.10,ENE,67,6.0,20.0,66,0.00,,,0.00,VWS V14.01,2013-05-04 13:34:00,
2013-05-04 09:35:00,51.0,40.4,30.10,ENE,67,14.0,14.0,67,0.00,,,0.00,VWS V14.01,2013-05-04 13:35:00,
2013-05-04 09:38:00,51.0,40.4,30.10,East,90,10.0,13.0,67,0.00,,,0.00,VWS V14.01,2013-05-04 13:38:00,
2013-05-04 09:40:00,52.0,40.6,30.10,ENE,67,11.0,16.0,65,0.00,,,0.00,VWS V14.01,2013-05-04 13:40:00,
2013-05-04 09:41:00,53.0,41.6,30.10,ENE,67,8.0,10.0,65,0.00,,,0.00,VWS V14.01,2013-05-04 13:41:00,
2013-05-04 09:44:00,52.0,41.0,30.10,East,90,6.0,15.0,66,0.00,,,0.00,VWS V14.01,2013-05-04 13:44:00,
2013-05-04 09:47:00,52.0,40.2,30.10,East,90,10.0,12.0,64,0.00,,,0.00,VWS V14.01,2013-05-04 13:47:00,
2013-05-04 09:48:00,51.0,39.3,30.10,East,90,12.0,18.0,64,0.00,,,0.00,VWS V14.01,2013-05-04 13:48:00,
2013-05-04 09:50:00,52.0,40.2,30.10,East,90,9.0,13.0,64,0.00,,,0.00,VWS V14.01,2013-05-04 13:50:00,
2013-05-04 09:52:00,52.0,40.2,30.10,East,90,10.0,12.0,64,0.00,,,0.00,VWS V14.01,2013-05-04 13:52:00,
2013-05-04 09:53:00,52.0,40.2,30.10,ESE,112,13.0,13.0,64,0.00,,,0.00,VWS V14.01,2013-05-04 13:53:00,
2013-05-04 09:54:00,52.0,40.6,30.10,East,90,10.0,13.0,65,0.00,,,0.00,VWS V14.01,2013-05-04 13:54:00,
2013-05-04 09:55:00,52.0,40.2,30.10,ESE,112,12.0,12.0,64,0.00,,,0.00,VWS V14.01,2013-05-04 13:55:00,
2013-05-04 09:57:00,53.0,41.6,30.10,ESE,112,6.0,9.0,65,0.00,,,0.00,VWS V14.01,2013-05-04 13:57:00,
2013-05-04 09:58:00,52.0,40.2,30.10,ENE,67,9.0,17.0,64,0.00,,,0.00,VWS V14.01,2013-05-04 13:58:00,
2013-05-04 09:59:00,52.0,40.6,30.10,East,90,9.0,17.0,65,0.00,,,0.00,VWS V14.01,2013-05-04 13:59:00,
2013-05-04 10:00:00,52.0,40.2,30.10,ENE,67,20.0,20.0,64,0.00,,,0.00,VWS V14.01,2013-05-04 14:00:00,
2013-05-04 10:04:00,52.0,40.2,30.10,ENE,67,11.0,12.0,64,0.00,,,0.00,VWS V14.01,2013-05-04 14:04:00,
2013-05-04 10:05:00,52.0,40.2,30.10,ESE,112,7.0,13.0,64,0.00,,,0.00,VWS V14.01,2013-05-04 14:05:00,
2013-05-04 10:06:00,52.0,40.2,30.10,East,90,12.0,14.0,64,0.00,,,0.00,VWS V14.01,2013-05-04 14:06:00,
2013-05-04 10:07:00,52.0,40.2,30.10,East,90,10.0,10.0,64,0.00,,,0.00,VWS V14.01,2013-05-04 14:07:00,
2013-05-04 10:10:00,52.0,41.0,30.10,ENE,67,13.0,13.0,66,0.00,,,0.00,VWS V14.01,2013-05-04 14:10:00,
2013-05-04 10:11:00,52.0,41.0,30.10,ESE,112,8.0,12.0,66,0.00,,,0.00,VWS V14.01,2013-05-04 14:11:00,
2013-05-04 10:12:00,52.0,40.6,30.10,East,90,10.0,12.0,65,0.00,,,0.00,VWS V14.01,2013-05-04 14:12:00,
2013-05-04 10:14:00,52.0,40.2,30.10,ESE,112,10.0,17.0,64,0.00,,,0.00,VWS V14.01,2013-05-04 14:14:00,
2013-05-04 10:15:00,52.0,40.2,30.10,ENE,67,12.0,19.0,64,0.00,,,0.00,VWS V14.01,2013-05-04 14:15:00,
2013-05-04 10:16:00,52.0,40.2,30.10,NNE,22,13.0,15.0,64,0.00,,,0.00,VWS V14.01,2013-05-04 14:16:00,
2013-05-04 10:17:00,52.0,39.8,30.10,NE,45,10.0,12.0,63,0.00,,,0.00,VWS V14.01,2013-05-04 14:17:00,
2013-05-04 10:18:00,52.0,39.8,30.10,East,90,7.0,16.0,63,0.00,,,0.00,VWS V14.01,2013-05-04 14:18:00,
2013-05-04 10:19:00,52.0,39.8,30.10,East,90,12.0,13.0,63,0.00,,,0.00,VWS V14.01,2013-05-04 14:19:00,
2013-05-04 10:22:00,52.0,40.2,30.10,ENE,67,15.0,15.0,64,0.00,,,0.00,VWS V14.01,2013-05-04 14:22:00,
2013-05-04 10:23:00,52.0,40.6,30.10,ENE,67,12.0,16.0,65,0.00,,,0.00,VWS V14.01,2013-05-04 14:23:00,
2013-05-04 10:24:00,52.0,40.2,30.10,ENE,67,10.0,10.0,64,0.00,,,0.00,VWS V14.01,2013-05-04 14:24:00,
2013-05-04 10:27:00,52.0,39.8,30.10,North,360,6.0,16.0,63,0.00,,,0.00,VWS V14.01,2013-05-04 14:27:00,
2013-05-04 10:28:00,52.0,39.8,30.10,NNE,22,6.0,14.0,63,0.00,,,0.00,VWS V14.01,2013-05-04 14:28:00,
2013-05-04 10:29:00,53.0,40.8,30.10,ENE,67,12.0,12.0,63,0.00,,,0.00,VWS V14.01,2013-05-04 14:29:00,
2013-05-04 10:32:00,52.0,39.8,30.10,ESE,112,10.0,12.0,63,0.00,,,0.00,VWS V14.01,2013-05-04 14:32:00,
2013-05-04 10:34:00,53.0,41.2,30.10,NE,45,14.0,17.0,64,0.00,,,0.00,VWS V14.01,2013-05-04 14:34:00,
2013-05-04 10:35:00,53.0,40.8,30.10,East,90,6.0,9.0,63,0.00,,,0.00,VWS V14.01,2013-05-04 14:35:00,
2013-05-04 10:37:00,53.0,40.3,30.10,ESE,112,7.0,15.0,62,0.00,,,0.00,VWS V14.01,2013-05-04 14:37:00,
2013-05-04 10:38:00,53.0,40.8,30.10,East,90,12.0,18.0,63,0.00,,,0.00,VWS V14.01,2013-05-04 14:38:00,
2013-05-04 10:40:00,53.0,40.8,30.10,East,90,11.0,12.0,63,0.00,,,0.00,VWS V14.01,2013-05-04 14:40:00,
2013-05-04 10:42:00,53.0,40.3,30.10,East,90,10.0,16.0,62,0.00,,,0.00,VWS V14.01,2013-05-04 14:42:00,
2013-05-04 10:43:00,53.0,40.8,30.10,ENE,67,11.0,11.0,63,0.00,,,0.00,VWS V14.01,2013-05-04 14:43:00,
2013-05-04 10:44:00,53.0,40.8,30.10,NNE,22,9.0,16.0,63,0.00,,,0.00,VWS V14.01,2013-05-04 14:44:00,
2013-05-04 10:46:00,52.0,39.8,30.10,NNE,22,12.0,15.0,63,0.00,,,0.00,VWS V14.01,2013-05-04 14:46:00,
2013-05-04 10:47:00,52.0,39.8,30.10,ENE,67,9.0,15.0,63,0.00,,,0.00,VWS V14.01,2013-05-04 14:47:00,
2013-05-04 10:48:00,52.0,39.8,30.10,East,90,7.0,15.0,63,0.00,,,0.00,VWS V14.01,2013-05-04 14:48:00,
2013-05-04 10:49:00,53.0,40.8,30.10,ENE,67,10.0,12.0,63,0.00,,,0.00,VWS V14.01,2013-05-04 14:49:00,
2013-05-04 10:50:00,54.0,41.3,30.10,NE,45,8.0,13.0,62,0.00,,,0.00,VWS V14.01,2013-05-04 14:50:00,
2013-05-04 10:51:00,54.0,41.3,30.10,ESE,112,9.0,14.0,62,0.00,,,0.00,VWS V14.01,2013-05-04 14:51:00,
2013-05-04 10:53:00,53.0,40.8,30.10,NNE,22,6.0,13.0,63,0.00,,,0.00,VWS V14.01,2013-05-04 14:53:00,
2013-05-04 10:54:00,52.0,39.4,30.10,East,90,13.0,13.0,62,0.00,,,0.00,VWS V14.01,2013-05-04 14:54:00,
2013-05-04 10:56:00,52.0,40.2,30.10,East,90,10.0,12.0,64,0.00,,,0.00,VWS V14.01,2013-05-04 14:56:00,
2013-05-04 10:57:00,52.0,40.2,30.10,East,90,14.0,17.0,64,0.00,,,0.00,VWS V14.01,2013-05-04 14:57:00,
2013-05-04 10:58:00,52.0,39.8,30.10,ESE,112,12.0,14.0,63,0.00,,,0.00,VWS V14.01,2013-05-04 14:58:00,
2013-05-04 11:00:00,52.0,39.8,30.10,ENE,67,12.0,13.0,63,0.00,,,0.00,VWS V14.01,2013-05-04 15:00:00,
2013-05-04 11:01:00,52.0,40.2,30.10,ESE,112,19.0,22.0,64,0.00,,,0.00,VWS V14.01,2013-05-04 15:01:00,
2013-05-04 11:02:00,53.0,40.8,30.10,ESE,112,16.0,22.0,63,0.00,,,0.00,VWS V14.01,2013-05-04 15:02:00,
2013-05-04 11:03:00,53.0,40.8,30.10,ESE,112,9.0,10.0,63,0.00,,,0.00,VWS V14.01,2013-05-04 15:03:00,
2013-05-04 11:05:00,52.0,39.8,30.10,ENE,67,12.0,16.0,63,0.00,,,0.00,VWS V14.01,2013-05-04 15:05:00,
2013-05-04 11:06:00,52.0,39.8,30.10,ENE,67,10.0,16.0,63,0.00,,,0.00,VWS V14.01,2013-05-04 15:06:00,
2013-05-04 11:08:00,53.0,40.3,30.10,East,90,12.0,15.0,62,0.00,,,0.00,VWS V14.01,2013-05-04 15:08:00,
2013-05-04 11:10:00,52.0,39.4,30.11,ENE,67,10.0,16.0,62,0.00,,,0.00,VWS V14.01,2013-05-04 15:10:00,
2013-05-04 11:11:00,52.0,39.4,30.11,ENE,67,7.0,14.0,62,0.00,,,0.00,VWS V14.01,2013-05-04 15:11:00,
2013-05-04 11:12:00,52.0,39.8,30.11,East,90,9.0,16.0,63,0.00,,,0.00,VWS V14.01,2013-05-04 15:12:00,
2013-05-04 11:13:00,52.0,39.4,30.11,ESE,112,10.0,13.0,62,0.00,,,0.00,VWS V14.01,2013-05-04 15:13:00,
2013-05-04 11:15:00,52.0,39.4,30.11,East,90,10.0,20.0,62,0.00,,,0.00,VWS V14.01,2013-05-04 15:15:00,
2013-05-04 11:18:00,52.0,39.8,30.11,East,90,7.0,12.0,63,0.00,,,0.00,VWS V14.01,2013-05-04 15:18:00,
2013-05-04 11:19:00,52.0,39.4,30.11,East,90,15.0,18.0,62,0.00,,,0.00,VWS V14.01,2013-05-04 15:19:00,
2013-05-04 11:21:00,52.0,39.8,30.11,East,90,9.0,10.0,63,0.00,,,0.00,VWS V14.01,2013-05-04 15:21:00,
2013-05-04 11:24:00,53.0,40.3,30.11,ENE,67,13.0,19.0,62,0.00,,,0.00,VWS V14.01,2013-05-04 15:24:00,
2013-05-04 11:25:00,52.0,39.4,30.11,ENE,67,10.0,15.0,62,0.00,,,0.00,VWS V14.01,2013-05-04 15:25:00,
2013-05-04 11:29:00,52.0,39.8,30.11,ENE,67,10.0,13.0,63,0.00,,,0.00,VWS V14.01,2013-05-04 15:29:00,
2013-05-04 11:31:00,52.0,39.4,30.11,ENE,67,12.0,15.0,62,0.00,,,0.00,VWS V14.01,2013-05-04 15:31:00,
2013-05-04 11:32:00,52.0,39.8,30.11,East,90,8.0,15.0,63,0.00,,,0.00,VWS V14.01,2013-05-04 15:32:00,
2013-05-04 11:34:00,52.0,39.8,30.11,East,90,12.0,16.0,63,0.00,,,0.00,VWS V14.01,2013-05-04 15:34:00,
2013-05-04 11:35:00,52.0,39.8,30.11,ENE,67,9.0,16.0,63,0.00,,,0.00,VWS V14.01,2013-05-04 15:35:00,
2013-05-04 11:37:00,52.0,39.0,30.11,East,90,10.0,15.0,61,0.00,,,0.00,VWS V14.01,2013-05-04 15:37:00,
2013-05-04 11:39:00,52.0,39.0,30.10,ENE,67,10.0,15.0,61,0.00,,,0.00,VWS V14.01,2013-05-04 15:39:00,
2013-05-04 11:40:00,52.0,39.0,30.10,East,90,16.0,16.0,61,0.00,,,0.00,VWS V14.01,2013-05-04 15:40:00,
2013-05-04 11:41:00,53.0,39.5,30.10,NE,45,7.0,7.0,60,0.00,,,0.00,VWS V14.01,2013-05-04 15:41:00,
2013-05-04 11:45:00,53.0,39.9,30.10,ESE,112,9.0,10.0,61,0.00,,,0.00,VWS V14.01,2013-05-04 15:45:00,
2013-05-04 11:47:00,53.0,39.5,30.10,ESE,112,10.0,14.0,60,0.00,,,0.00,VWS V14.01,2013-05-04 15:47:00,
2013-05-04 11:52:00,52.0,39.0,30.10,ESE,112,13.0,16.0,61,0.00,,,0.00,VWS V14.01,2013-05-04 15:52:00,
2013-05-04 11:53:00,53.0,39.9,30.10,ESE,112,7.0,13.0,61,0.00,,,0.00,VWS V14.01,2013-05-04 15:53:00,
2013-05-04 11:56:00,53.0,39.1,30.10,NNE,22,8.0,9.0,59,0.00,,,0.00,VWS V14.01,2013-05-04 15:56:00,
2013-05-04 11:57:00,54.0,40.0,30.10,NNE,22,9.0,12.0,59,0.00,,,0.00,VWS V14.01,2013-05-04 15:57:00,
2013-05-04 11:58:00,54.0,39.6,30.10,East,90,6.0,12.0,58,0.00,,,0.00,VWS V14.01,2013-05-04 15:58:00,
2013-05-04 11:59:00,54.0,40.0,30.10,East,90,9.0,9.0,59,0.00,,,0.00,VWS V14.01,2013-05-04 15:59:00,
2013-05-04 12:01:00,53.0,39.1,30.10,East,90,10.0,21.0,59,0.00,,,0.00,VWS V14.01,2013-05-04 16:01:00,
2013-05-04 12:02:00,52.0,38.1,30.10,ENE,67,14.0,20.0,59,0.00,,,0.00,VWS V14.01,2013-05-04 16:02:00,
2013-05-04 12:04:00,53.0,39.5,30.10,ESE,112,9.0,12.0,60,0.00,,,0.00,VWS V14.01,2013-05-04 16:04:00,
2013-05-04 12:07:00,53.0,39.5,30.10,East,90,11.0,16.0,60,0.00,,,0.00,VWS V14.01,2013-05-04 16:07:00,
2013-05-04 12:08:00,53.0,39.5,30.10,ENE,67,11.0,15.0,60,0.00,,,0.00,VWS V14.01,2013-05-04 16:08:00,
2013-05-04 12:10:00,52.0,38.6,30.10,East,90,8.0,14.0,60,0.00,,,0.00,VWS V14.01,2013-05-04 16:10:00,
2013-05-04 12:12:00,53.0,39.9,30.10,East,90,12.0,13.0,61,0.00,,,0.00,VWS V14.01,2013-05-04 16:12:00,
2013-05-04 12:13:00,53.0,39.9,30.10,East,90,12.0,12.0,61,0.00,,,0.00,VWS V14.01,2013-05-04 16:13:00,
2013-05-04 12:14:00,53.0,39.5,30.10,ENE,67,12.0,15.0,60,0.00,,,0.00,VWS V14.01,2013-05-04 16:14:00,
2013-05-04 12:15:00,52.0,38.6,30.10,ESE,112,9.0,14.0,60,0.00,,,0.00,VWS V14.01,2013-05-04 16:15:00,
2013-05-04 12:19:00,52.0,38.6,30.10,East,90,12.0,18.0,60,0.00,,,0.00,VWS V14.01,2013-05-04 16:19:00,
2013-05-04 12:20:00,53.0,40.3,30.10,East,90,10.0,12.0,62,0.00,,,0.00,VWS V14.01,2013-05-04 16:20:00,
2013-05-04 12:21:00,52.0,39.0,30.10,East,90,11.0,17.0,61,0.00,,,0.00,VWS V14.01,2013-05-04 16:21:00,
2013-05-04 12:24:00,52.0,39.8,30.10,NE,45,10.0,15.0,63,0.00,,,0.00,VWS V14.01,2013-05-04 16:24:00,
2013-05-04 12:25:00,53.0,40.3,30.10,East,90,9.0,16.0,62,0.00,,,0.00,VWS V14.01,2013-05-04 16:25:00,
2013-05-04 12:27:00,52.0,39.0,30.10,ENE,67,10.0,10.0,61,0.00,,,0.00,VWS V14.01,2013-05-04 16:27:00,
2013-05-04 12:28:00,53.0,40.3,30.10,NE,45,15.0,15.0,62,0.00,,,0.00,VWS V14.01,2013-05-04 16:28:00,
2013-05-04 12:29:00,53.0,39.5,30.10,ENE,67,20.0,20.0,60,0.00,,,0.00,VWS V14.01,2013-05-04 16:29:00,
2013-05-04 12:31:00,53.0,39.9,30.10,ENE,67,7.0,16.0,61,0.00,,,0.00,VWS V14.01,2013-05-04 16:31:00,
2013-05-04 12:33:00,52.0,39.0,30.10,ENE,67,10.0,17.0,61,0.00,,,0.00,VWS V14.01,2013-05-04 16:33:00,
2013-05-04 12:34:00,52.0,39.0,30.10,East,90,9.0,12.0,61,0.00,,,0.00,VWS V14.01,2013-05-04 16:34:00,
2013-05-04 12:35:00,53.0,40.3,30.10,ESE,112,7.0,12.0,62,0.00,,,0.00,VWS V14.01,2013-05-04 16:35:00,
2013-05-04 12:37:00,53.0,39.5,30.10,NE,45,11.0,15.0,60,0.00,,,0.00,VWS V14.01,2013-05-04 16:37:00,
2013-05-04 12:39:00,54.0,40.4,30.10,East,90,10.0,10.0,60,0.00,,,0.00,VWS V14.01,2013-05-04 16:39:00,
2013-05-04 12:40:00,53.0,39.5,30.10,East,90,13.0,20.0,60,0.00,,,0.00,VWS V14.01,2013-05-04 16:40:00,
2013-05-04 12:41:00,52.0,39.4,30.10,NE,45,11.0,12.0,62,0.00,,,0.00,VWS V14.01,2013-05-04 16:41:00,
2013-05-04 12:44:00,53.0,39.9,30.10,East,90,13.0,14.0,61,0.00,,,0.00,VWS V14.01,2013-05-04 16:44:00,
2013-05-04 12:45:00,53.0,39.5,30.10,East,90,13.0,18.0,60,0.00,,,0.00,VWS V14.01,2013-05-04 16:45:00,
2013-05-04 12:46:00,53.0,39.9,30.10,East,90,15.0,15.0,61,0.00,,,0.00,VWS V14.01,2013-05-04 16:46:00,
2013-05-04 12:47:00,52.0,38.6,30.10,East,90,9.0,15.0,60,0.00,,,0.00,VWS V14.01,2013-05-04 16:47:00,
2013-05-04 12:51:00,54.0,40.0,30.10,East,90,7.0,8.0,59,0.00,,,0.00,VWS V14.01,2013-05-04 16:51:00,
2013-05-04 12:52:00,54.0,40.4,30.10,East,90,6.0,16.0,60,0.00,,,0.00,VWS V14.01,2013-05-04 16:52:00,
2013-05-04 12:53:00,53.0,39.5,30.10,East,90,7.0,22.0,60,0.00,,,0.00,VWS V14.01,2013-05-04 16:53:00,
2013-05-04 12:54:00,53.0,39.5,30.10,East,90,11.0,11.0,60,0.00,,,0.00,VWS V14.01,2013-05-04 16:54:00,
2013-05-04 12:57:00,53.0,39.1,30.10,ESE,112,10.0,15.0,59,0.00,,,0.00,VWS V14.01,2013-05-04 16:57:00,
2013-05-04 12:58:00,53.0,39.5,30.10,ESE,112,9.0,22.0,60,0.00,,,0.00,VWS V14.01,2013-05-04 16:58:00,
2013-05-04 12:59:00,53.0,39.5,30.10,East,90,13.0,13.0,60,0.00,,,0.00,VWS V14.01,2013-05-04 16:59:00,
2013-05-04 13:00:00,52.0,38.6,30.10,East,90,15.0,19.0,60,0.00,,,0.00,VWS V14.01,2013-05-04 17:00:00,
2013-05-04 13:04:00,53.0,39.5,30.10,ENE,67,11.0,21.0,60,0.00,,,0.00,VWS V14.01,2013-05-04 17:04:00,
2013-05-04 13:05:00,53.0,39.5,30.10,East,90,7.0,16.0,60,0.00,,,0.00,VWS V14.01,2013-05-04 17:05:00,
2013-05-04 13:06:00,54.0,40.0,30.10,NNE,22,8.0,13.0,59,0.00,,,0.00,VWS V14.01,2013-05-04 17:06:00,
2013-05-04 13:07:00,54.0,40.4,30.10,East,90,12.0,12.0,60,0.00,,,0.00,VWS V14.01,2013-05-04 17:07:00,
2013-05-04 13:09:00,53.0,39.1,30.10,East,90,14.0,16.0,59,0.00,,,0.00,VWS V14.01,2013-05-04 17:09:00,
2013-05-04 13:10:00,53.0,39.5,30.10,East,90,8.0,19.0,60,0.00,,,0.00,VWS V14.01,2013-05-04 17:10:00,
2013-05-04 13:11:00,53.0,39.5,30.10,East,90,10.0,12.0,60,0.00,,,0.00,VWS V14.01,2013-05-04 17:11:00,
2013-05-04 13:12:00,54.0,40.9,30.10,ESE,112,12.0,13.0,61,0.00,,,0.00,VWS V14.01,2013-05-04 17:12:00,
2013-05-04 13:14:00,52.0,38.6,30.10,ENE,67,20.0,20.0,60,0.00,,,0.00,VWS V14.01,2013-05-04 17:14:00,
2013-05-04 13:15:00,53.0,39.5,30.10,ENE,67,13.0,18.0,61,0.00,,,0.00,VWS V14.01,2013-05-04 17:15:00,
2013-05-04 13:16:00,53.0,39.1,30.10,East,90,6.0,19.0,60,0.00,,,0.00,VWS V14.01,2013-05-04 17:16:00,
2013-05-04 13:17:00,53.0,39.5,30.10,ENE,67,13.0,13.0,60,0.00,,,0.00,VWS V14.01,2013-05-04 17:17:00,
2013-05-04 13:18:00,53.0,39.5,30.10,East,90,12.0,13.0,60,0.00,,,0.00,VWS V14.01,2013-05-04 17:18:00,
2013-05-04 13:20:00,53.0,39.1,30.10,East,90,11.0,17.0,59,0.00,,,0.00,VWS V14.01,2013-05-04 17:20:00,
2013-05-04 13:22:00,53.0,39.5,30.10,NNE,22,8.0,16.0,60,0.00,,,0.00,VWS V14.01,2013-05-04 17:22:00,
2013-05-04 13:23:00,53.0,39.1,30.10,NNE,22,12.0,16.0,59,0.00,,,0.00,VWS V14.01,2013-05-04 17:23:00,
2013-05-04 13:24:00,53.0,39.1,30.10,East,90,4.0,16.0,59,0.00,,,0.00,VWS V14.01,2013-05-04 17:24:00,
2013-05-04 13:26:00,53.0,39.1,30.10,ESE,112,13.0,15.0,59,0.00,,,0.00,VWS V14.01,2013-05-04 17:26:00,
2013-05-04 13:27:00,53.0,39.1,30.10,East,90,10.0,12.0,59,0.00,,,0.00,VWS V14.01,2013-05-04 17:27:00,
2013-05-04 13:28:00,52.0,38.1,30.10,East,90,10.0,20.0,59,0.00,,,0.00,VWS V14.01,2013-05-04 17:28:00,
2013-05-04 13:29:00,53.0,39.5,30.10,East,90,7.0,20.0,60,0.00,,,0.00,VWS V14.01,2013-05-04 17:29:00,
2013-05-04 13:31:00,52.0,38.6,30.10,East,90,15.0,18.0,60,0.00,,,0.00,VWS V14.01,2013-05-04 17:31:00,
2013-05-04 13:32:00,52.0,39.0,30.10,East,90,13.0,16.0,61,0.00,,,0.00,VWS V14.01,2013-05-04 17:32:00,
2013-05-04 13:34:00,53.0,39.9,30.10,NE,45,12.0,13.0,61,0.00,,,0.00,VWS V14.01,2013-05-04 17:34:00,
2013-05-04 13:36:00,53.0,38.6,30.10,East,90,13.0,15.0,58,0.00,,,0.00,VWS V14.01,2013-05-04 17:36:00,
2013-05-04 13:37:00,53.0,39.1,30.10,ESE,112,8.0,20.0,59,0.00,,,0.00,VWS V14.01,2013-05-04 17:37:00,
2013-05-04 13:38:00,53.0,39.1,30.10,East,90,10.0,10.0,59,0.00,,,0.00,VWS V14.01,2013-05-04 17:38:00,
2013-05-04 13:40:00,54.0,40.0,30.10,ENE,67,4.0,12.0,59,0.00,,,0.00,VWS V14.01,2013-05-04 17:40:00,
2013-05-04 13:41:00,53.0,38.2,30.10,ENE,67,13.0,14.0,57,0.00,,,0.00,VWS V14.01,2013-05-04 17:41:00,
2013-05-04 13:42:00,53.0,39.1,30.10,ESE,112,11.0,13.0,59,0.00,,,0.00,VWS V14.01,2013-05-04 17:42:00,
2013-05-04 13:44:00,52.0,39.0,30.10,East,90,12.0,19.0,61,0.00,,,0.00,VWS V14.01,2013-05-04 17:44:00,
2013-05-04 13:45:00,53.0,39.9,30.10,East,90,9.0,16.0,61,0.00,,,0.00,VWS V14.01,2013-05-04 17:45:00,
2013-05-04 13:46:00,53.0,39.5,30.10,East,90,13.0,13.0,60,0.00,,,0.00,VWS V14.01,2013-05-04 17:46:00,
2013-05-04 13:47:00,53.0,39.1,30.10,East,90,11.0,13.0,59,0.00,,,0.00,VWS V14.01,2013-05-04 17:47:00,
2013-05-04 13:49:00,54.0,40.4,30.09,East,90,9.0,15.0,60,0.00,,,0.00,VWS V14.01,2013-05-04 17:49:00,
2013-05-04 13:50:00,54.0,40.0,30.09,ESE,112,9.0,14.0,59,0.00,,,0.00,VWS V14.01,2013-05-04 17:50:00,
2013-05-04 13:52:00,54.0,40.4,30.09,ENE,67,9.0,12.0,60,0.00,,,0.00,VWS V14.01,2013-05-04 17:52:00,
2013-05-04 13:55:00,52.0,39.0,30.09,ENE,67,10.0,19.0,61,0.00,,,0.00,VWS V14.01,2013-05-04 17:55:00,
2013-05-04 13:56:00,52.0,38.6,30.09,ENE,67,16.0,16.0,60,0.00,,,0.00,VWS V14.01,2013-05-04 17:56:00,
2013-05-04 13:57:00,52.0,38.6,30.09,East,90,17.0,17.0,60,0.00,,,0.00,VWS V14.01,2013-05-04 17:57:00,
2013-05-04 13:59:00,52.0,39.0,30.10,East,90,15.0,18.0,61,0.00,,,0.00,VWS V14.01,2013-05-04 17:59:00,
2013-05-04 14:00:00,52.0,39.0,30.10,East,90,21.0,21.0,61,0.00,,,0.00,VWS V14.01,2013-05-04 18:00:00,
2013-05-04 14:01:00,52.0,39.0,30.10,ESE,112,6.0,21.0,61,0.00,,,0.00,VWS V14.01,2013-05-04 18:01:00,
2013-05-04 14:05:00,53.0,39.5,30.10,NE,45,7.0,15.0,60,0.00,,,0.00,VWS V14.01,2013-05-04 18:05:00,
2013-05-04 14:06:00,53.0,39.1,30.10,East,90,7.0,13.0,59,0.00,,,0.00,VWS V14.01,2013-05-04 18:06:00,
2013-05-04 14:07:00,53.0,39.1,30.10,ENE,67,11.0,13.0,59,0.00,,,0.00,VWS V14.01,2013-05-04 18:07:00,
2013-05-04 14:11:00,53.0,39.5,30.10,NE,45,11.0,13.0,60,0.00,,,0.00,VWS V14.01,2013-05-04 18:11:00,
2013-05-04 14:12:00,53.0,39.1,30.10,North,360,9.0,13.0,59,0.00,,,0.00,VWS V14.01,2013-05-04 18:12:00,
2013-05-04 14:13:00,53.0,39.1,30.10,East,90,10.0,10.0,59,0.00,,,0.00,VWS V14.01,2013-05-04 18:13:00,
2013-05-04 14:16:00,54.0,40.0,30.10,East,90,13.0,13.0,59,0.00,,,0.00,VWS V14.01,2013-05-04 18:16:00,
2013-05-04 14:17:00,54.0,40.0,30.10,ENE,67,9.0,11.0,59,0.00,,,0.00,VWS V14.01,2013-05-04 18:17:00,
2013-05-04 14:18:00,53.0,39.1,30.10,East,90,9.0,13.0,59,0.00,,,0.00,VWS V14.01,2013-05-04 18:18:00,
2013-05-04 14:19:00,53.0,39.5,30.09,NE,45,10.0,15.0,60,0.00,,,0.00,VWS V14.01,2013-05-04 18:19:00,
2013-05-04 14:22:00,54.0,40.4,30.09,ENE,67,9.0,17.0,60,0.00,,,0.00,VWS V14.01,2013-05-04 18:22:00,
2013-05-04 14:23:00,53.0,38.2,30.09,NNE,22,15.0,15.0,57,0.00,,,0.00,VWS V14.01,2013-05-04 18:23:00,
2013-05-04 14:25:00,53.0,39.1,30.09,NE,45,14.0,14.0,59,0.00,,,0.00,VWS V14.01,2013-05-04 18:25:00,
2013-05-04 14:27:00,53.0,39.5,30.09,ENE,67,7.0,9.0,60,0.00,,,0.00,VWS V14.01,2013-05-04 18:27:00,
2013-05-04 14:28:00,53.0,38.6,30.09,ESE,112,5.0,7.0,58,0.00,,,0.00,VWS V14.01,2013-05-04 18:28:00,
2013-05-04 14:30:00,54.0,38.7,30.09,NNE,22,19.0,23.0,56,0.00,,,0.00,VWS V14.01,2013-05-04 18:30:00,
2013-05-04 14:31:00,53.0,38.2,30.09,East,90,12.0,19.0,57,0.00,,,0.00,VWS V14.01,2013-05-04 18:31:00,
2013-05-04 14:32:00,52.0,38.1,30.09,East,90,12.0,15.0,59,0.00,,,0.00,VWS V14.01,2013-05-04 18:32:00,
2013-05-04 14:33:00,53.0,38.6,30.09,ESE,112,8.0,15.0,58,0.00,,,0.00,VWS V14.01,2013-05-04 18:33:00,
2013-05-04 14:34:00,52.0,37.7,30.09,East,90,16.0,17.0,58,0.00,,,0.00,VWS V14.01,2013-05-04 18:34:00,
2013-05-04 14:35:00,52.0,38.1,30.09,ENE,67,7.0,17.0,59,0.00,,,0.00,VWS V14.01,2013-05-04 18:35:00,
2013-05-04 14:37:00,53.0,39.1,30.09,East,90,17.0,17.0,59,0.00,,,0.00,VWS V14.01,2013-05-04 18:37:00,
2013-05-04 14:38:00,53.0,39.1,30.09,NE,45,12.0,17.0,59,0.00,,,0.00,VWS V14.01,2013-05-04 18:38:00,
2013-05-04 14:39:00,53.0,38.6,30.09,East,90,10.0,15.0,58,0.00,,,0.00,VWS V14.01,2013-05-04 18:39:00,
2013-05-04 14:40:00,53.0,38.6,30.09,East,90,5.0,11.0,58,0.00,,,0.00,VWS V14.01,2013-05-04 18:40:00,
2013-05-04 14:41:00,54.0,39.6,30.09,ENE,67,15.0,15.0,58,0.00,,,0.00,VWS V14.01,2013-05-04 18:41:00,
2013-05-04 14:43:00,52.0,37.7,30.09,East,90,13.0,15.0,58,0.00,,,0.00,VWS V14.01,2013-05-04 18:43:00,
2013-05-04 14:44:00,52.0,38.6,30.09,ENE,67,19.0,22.0,60,0.00,,,0.00,VWS V14.01,2013-05-04 18:44:00,
2013-05-04 14:45:00,52.0,38.1,30.09,ESE,112,11.0,14.0,59,0.00,,,0.00,VWS V14.01,2013-05-04 18:45:00,
2013-05-04 14:47:00,52.0,38.6,30.09,ENE,67,10.0,15.0,60,0.00,,,0.00,VWS V14.01,2013-05-04 18:47:00,
2013-05-04 14:49:00,52.0,37.7,30.10,NNE,22,12.0,12.0,58,0.00,,,0.00,VWS V14.01,2013-05-04 18:49:00,
2013-05-04 14:50:00,53.0,39.1,30.10,ENE,67,10.0,12.0,59,0.00,,,0.00,VWS V14.01,2013-05-04 18:50:00,
2013-05-04 14:51:00,52.0,37.7,30.10,NNE,22,15.0,21.0,58,0.00,,,0.00,VWS V14.01,2013-05-04 18:51:00,
2013-05-04 14:53:00,52.0,38.1,30.10,ESE,112,16.0,16.0,59,0.00,,,0.00,VWS V14.01,2013-05-04 18:53:00,
2013-05-04 14:55:00,52.0,37.7,30.10,NE,45,16.0,20.0,58,0.00,,,0.00,VWS V14.01,2013-05-04 18:55:00,
2013-05-04 14:57:00,52.0,37.7,30.10,ENE,67,9.0,17.0,58,0.00,,,0.00,VWS V14.01,2013-05-04 18:57:00,
2013-05-04 15:00:00,52.0,37.7,30.09,ESE,112,12.0,12.0,58,0.00,,,0.00,VWS V14.01,2013-05-04 19:00:00,
2013-05-04 15:02:00,52.0,38.1,30.09,East,90,13.0,15.0,59,0.00,,,0.00,VWS V14.01,2013-05-04 19:02:00,
2013-05-04 15:03:00,52.0,37.2,30.09,East,90,7.0,12.0,57,0.00,,,0.00,VWS V14.01,2013-05-04 19:03:00,
2013-05-04 15:04:00,52.0,37.2,30.09,East,90,10.0,10.0,57,0.00,,,0.00,VWS V14.01,2013-05-04 19:04:00,
2013-05-04 15:05:00,52.0,37.7,30.09,ESE,112,9.0,11.0,58,0.00,,,0.00,VWS V14.01,2013-05-04 19:05:00,
2013-05-04 15:06:00,52.0,37.7,30.09,NNE,22,17.0,19.0,58,0.00,,,0.00,VWS V14.01,2013-05-04 19:06:00,
2013-05-04 15:07:00,52.0,37.7,30.09,East,90,10.0,12.0,58,0.00,,,0.00,VWS V14.01,2013-05-04 19:07:00,
2013-05-04 15:09:00,52.0,37.7,30.08,East,90,10.0,15.0,58,0.00,,,0.00,VWS V14.01,2013-05-04 19:09:00,
2013-05-04 15:10:00,52.0,38.1,30.08,East,90,13.0,16.0,59,0.00,,,0.00,VWS V14.01,2013-05-04 19:10:00,
2013-05-04 15:11:00,52.0,38.6,30.08,East,90,7.0,12.0,60,0.00,,,0.00,VWS V14.01,2013-05-04 19:11:00,
2013-05-04 15:14:00,52.0,38.1,30.08,East,90,20.0,20.0,59,0.00,,,0.00,VWS V14.01,2013-05-04 19:14:00,
2013-05-04 15:16:00,52.0,37.7,30.08,SE,135,13.0,13.0,58,0.00,,,0.00,VWS V14.01,2013-05-04 19:16:00,
2013-05-04 15:17:00,52.0,38.1,30.08,East,90,12.0,15.0,59,0.00,,,0.00,VWS V14.01,2013-05-04 19:17:00,
2013-05-04 15:18:00,52.0,38.1,30.08,East,90,11.0,15.0,59,0.00,,,0.00,VWS V14.01,2013-05-04 19:18:00,
2013-05-04 15:20:00,52.0,37.2,30.08,East,90,15.0,15.0,57,0.00,,,0.00,VWS V14.01,2013-05-04 19:20:00,
2013-05-04 15:21:00,51.0,36.3,30.08,ESE,112,9.0,21.0,57,0.00,,,0.00,VWS V14.01,2013-05-04 19:21:00,
2013-05-04 15:22:00,51.0,36.3,30.08,East,90,12.0,13.0,57,0.00,,,0.00,VWS V14.01,2013-05-04 19:22:00,
2013-05-04 15:24:00,52.0,37.7,30.08,NNE,22,10.0,13.0,58,0.00,,,0.00,VWS V14.01,2013-05-04 19:24:00,
2013-05-04 15:25:00,52.0,37.7,30.08,NE,45,10.0,19.0,58,0.00,,,0.00,VWS V14.01,2013-05-04 19:25:00,
2013-05-04 15:27:00,52.0,37.7,30.08,East,90,13.0,13.0,58,0.00,,,0.00,VWS V14.01,2013-05-04 19:27:00,
2013-05-04 15:29:00,52.0,37.7,30.08,NNE,22,12.0,17.0,58,0.00,,,0.00,VWS V14.01,2013-05-04 19:29:00,
2013-05-04 15:30:00,52.0,38.1,30.08,NNE,22,13.0,17.0,58,0.00,,,0.00,VWS V14.01,2013-05-04 19:30:00,
2013-05-04 15:31:00,52.0,38.1,30.08,ENE,67,9.0,15.0,59,0.00,,,0.00,VWS V14.01,2013-05-04 19:31:00,
2013-05-04 15:32:00,52.0,37.7,30.08,NE,45,9.0,13.0,58,0.00,,,0.00,VWS V14.01,2013-05-04 19:32:00,
2013-05-04 15:33:00,52.0,37.7,30.08,East,90,13.0,15.0,58,0.00,,,0.00,VWS V14.01,2013-05-04 19:33:00,
2013-05-04 15:34:00,52.0,38.6,30.08,East,90,12.0,14.0,60,0.00,,,0.00,VWS V14.01,2013-05-04 19:34:00,
2013-05-04 15:36:00,52.0,38.1,30.08,ESE,112,13.0,22.0,59,0.00,,,0.00,VWS V14.01,2013-05-04 19:36:00,
2013-05-04 15:37:00,52.0,37.6,30.08,East,90,12.0,22.0,59,0.00,,,0.00,VWS V14.01,2013-05-04 19:37:00,
2013-05-04 15:38:00,52.0,39.0,30.08,East,90,12.0,12.0,61,0.00,,,0.00,VWS V14.01,2013-05-04 19:38:00,
2013-05-04 15:40:00,52.0,38.6,30.08,ESE,112,9.0,17.0,60,0.00,,,0.00,VWS V14.01,2013-05-04 19:40:00,
2013-05-04 15:42:00,52.0,38.6,30.08,East,90,10.0,12.0,60,0.00,,,0.00,VWS V14.01,2013-05-04 19:42:00,
2013-05-04 15:43:00,52.0,38.6,30.08,ENE,67,9.0,15.0,60,0.00,,,0.00,VWS V14.01,2013-05-04 19:43:00,
2013-05-04 15:44:00,52.0,39.0,30.08,ENE,67,13.0,16.0,60,0.00,,,0.00,VWS V14.01,2013-05-04 19:44:00,
2013-05-04 15:47:00,52.0,39.4,30.08,ESE,112,10.0,10.0,62,0.00,,,0.00,VWS V14.01,2013-05-04 19:47:00,
2013-05-04 15:48:00,51.0,38.0,30.08,ENE,67,16.0,16.0,61,0.00,,,0.00,VWS V14.01,2013-05-04 19:48:00,
2013-05-04 15:49:00,52.0,39.4,30.08,East,90,13.0,13.0,62,0.00,,,0.00,VWS V14.01,2013-05-04 19:49:00,
2013-05-04 15:50:00,52.0,39.4,30.08,ESE,112,9.0,14.0,62,0.00,,,0.00,VWS V14.01,2013-05-04 19:50:00,
2013-05-04 15:51:00,52.0,39.0,30.08,East,90,12.0,17.0,61,0.00,,,0.00,VWS V14.01,2013-05-04 19:51:00,
2013-05-04 15:53:00,51.0,38.5,30.08,East,90,10.0,15.0,62,0.00,,,0.00,VWS V14.01,2013-05-04 19:53:00,
2013-05-04 15:54:00,52.0,39.8,30.08,ESE,112,9.0,13.0,63,0.00,,,0.00,VWS V14.01,2013-05-04 19:54:00,
2013-05-04 15:55:00,52.0,39.8,30.08,East,90,11.0,13.0,63,0.00,,,0.00,VWS V14.01,2013-05-04 19:55:00,
2013-05-04 15:56:00,52.0,39.4,30.08,East,90,9.0,19.0,62,0.00,,,0.00,VWS V14.01,2013-05-04 19:56:00,
2013-05-04 15:59:00,51.0,39.8,30.08,ESE,112,12.0,17.0,63,0.00,,,0.00,VWS V14.01,2013-05-04 19:59:00,
2013-05-04 16:00:00,52.0,39.8,30.08,ESE,112,10.0,16.0,63,0.00,,,0.00,VWS V14.01,2013-05-04 20:00:00,
2013-05-04 16:01:00,52.0,38.9,30.08,ENE,67,18.0,18.0,63,0.00,,,0.00,VWS V14.01,2013-05-04 20:01:00,
2013-05-04 16:04:00,52.0,39.4,30.08,East,90,6.0,13.0,64,0.00,,,0.00,VWS V14.01,2013-05-04 20:04:00,
2013-05-04 16:05:00,52.0,39.4,30.08,NNE,22,9.0,15.0,62,0.00,,,0.00,VWS V14.01,2013-05-04 20:05:00,
2013-05-04 16:06:00,52.0,38.9,30.08,NE,45,15.0,15.0,62,0.00,,,0.00,VWS V14.01,2013-05-04 20:06:00,
2013-05-04 16:07:00,51.0,39.7,30.08,East,90,17.0,20.0,63,0.00,,,0.00,VWS V14.01,2013-05-04 20:07:00,
2013-05-04 16:10:00,51.0,40.1,30.08,ESE,112,7.0,13.0,66,0.00,,,0.00,VWS V14.01,2013-05-04 20:10:00,
2013-05-04 16:11:00,51.0,39.1,30.08,ENE,67,17.0,20.0,66,0.00,,,0.00,VWS V14.01,2013-05-04 20:11:00,
2013-05-04 16:12:00,51.0,40.1,30.08,East,90,10.0,12.0,66,0.00,,,0.00,VWS V14.01,2013-05-04 20:12:00,
2013-05-04 16:15:00,51.0,40.1,30.08,ESE,112,10.0,13.0,65,0.00,,,0.00,VWS V14.01,2013-05-04 20:15:00,
2013-05-04 16:16:00,51.0,39.7,30.08,ENE,67,10.0,10.0,65,0.00,,,0.00,VWS V14.01,2013-05-04 20:16:00,
2013-05-04 16:18:00,52.0,40.2,30.08,NNE,22,11.0,12.0,64,0.00,,,0.00,VWS V14.01,2013-05-04 20:18:00,
2013-05-04 16:20:00,51.0,40.2,30.08,ENE,67,7.0,21.0,65,0.00,,,0.00,VWS V14.01,2013-05-04 20:20:00,
2013-05-04 16:23:00,52.0,40.2,30.08,NNE,22,6.0,18.0,64,0.00,,,0.00,VWS V14.01,2013-05-04 20:23:00,
2013-05-04 16:25:00,51.0,39.3,30.08,NE,45,14.0,15.0,64,0.00,,,0.00,VWS V14.01,2013-05-04 20:25:00,
2013-05-04 16:26:00,51.0,40.1,30.08,NNE,22,11.0,12.0,66,0.00,,,0.00,VWS V14.01,2013-05-04 20:26:00,
2013-05-04 16:28:00,51.0,39.7,30.08,NE,45,11.0,17.0,65,0.00,,,0.00,VWS V14.01,2013-05-04 20:28:00,
2013-05-04 16:29:00,50.0,39.1,30.08,NE,45,10.0,18.0,66,0.00,,,0.00,VWS V14.01,2013-05-04 20:29:00,
2013-05-04 16:30:00,50.0,39.1,30.08,ENE,67,10.0,22.0,66,0.00,,,0.00,VWS V14.01,2013-05-04 20:30:00,
2013-05-04 16:31:00,50.0,39.5,30.08,ENE,67,7.0,16.0,67,0.00,,,0.00,VWS V14.01,2013-05-04 20:31:00,
2013-05-04 16:32:00,50.0,39.5,30.08,ENE,67,8.0,16.0,67,0.00,,,0.00,VWS V14.01,2013-05-04 20:32:00,
2013-05-04 16:34:00,51.0,40.4,30.08,East,90,10.0,12.0,67,0.00,,,0.00,VWS V14.01,2013-05-04 20:34:00,
2013-05-04 16:36:00,51.0,40.1,30.08,ENE,67,11.0,13.0,66,0.00,,,0.00,VWS V14.01,2013-05-04 20:36:00,
2013-05-04 16:37:00,51.0,40.1,30.08,ENE,67,10.0,13.0,66,0.00,,,0.00,VWS V14.01,2013-05-04 20:37:00,
2013-05-04 16:39:00,50.0,39.9,30.08,East,90,15.0,16.0,68,0.00,,,0.00,VWS V14.01,2013-05-04 20:39:00,
2013-05-04 16:42:00,50.0,39.9,30.08,East,90,9.0,9.0,68,0.00,,,0.00,VWS V14.01,2013-05-04 20:42:00,
2013-05-04 16:44:00,50.0,39.9,30.08,NNE,22,13.0,15.0,68,0.00,,,0.00,VWS V14.01,2013-05-04 20:44:00,
2013-05-04 16:45:00,50.0,39.9,30.08,East,90,6.0,14.0,68,0.00,,,0.00,VWS V14.01,2013-05-04 20:45:00,
2013-05-04 16:48:00,50.0,39.9,30.08,ENE,67,12.0,14.0,68,0.00,,,0.00,VWS V14.01,2013-05-04 20:48:00,
2013-05-04 16:49:00,50.0,39.9,30.08,ENE,67,11.0,19.0,68,0.00,,,0.00,VWS V14.01,2013-05-04 20:49:00,
2013-05-04 16:51:00,50.0,39.9,30.09,East,90,10.0,15.0,68,0.00,,,0.00,VWS V14.01,2013-05-04 20:51:00,
2013-05-04 16:52:00,51.0,40.8,30.09,East,90,5.0,7.0,68,0.00,,,0.00,VWS V14.01,2013-05-04 20:52:00,
2013-05-04 16:53:00,50.0,39.9,30.09,ENE,67,10.0,10.0,68,0.00,,,0.00,VWS V14.01,2013-05-04 20:53:00,
2013-05-04 16:54:00,50.0,38.9,30.09,East,90,17.0,17.0,68,0.00,,,0.00,VWS V14.01,2013-05-04 20:54:00,
2013-05-04 16:57:00,49.0,39.3,30.09,East,90,10.0,16.0,69,0.00,,,0.00,VWS V14.01,2013-05-04 20:57:00,
2013-05-04 16:58:00,49.0,39.7,30.09,ESE,112,9.0,9.0,70,0.00,,,0.00,VWS V14.01,2013-05-04 20:58:00,
2013-05-04 16:59:00,49.0,39.7,30.09,NNE,22,15.0,15.0,70,0.00,,,0.00,VWS V14.01,2013-05-04 20:59:00,
2013-05-04 17:00:00,50.0,40.6,30.09,ESE,112,9.0,10.0,70,0.00,,,0.00,VWS V14.01,2013-05-04 21:00:00,
2013-05-04 17:02:00,50.0,40.2,30.09,NE,45,9.0,17.0,69,0.00,,,0.00,VWS V14.01,2013-05-04 21:02:00,
2013-05-04 17:03:00,49.0,39.7,30.09,NE,45,11.0,18.0,70,0.00,,,0.00,VWS V14.01,2013-05-04 21:03:00,
2013-05-04 17:04:00,49.0,39.7,30.09,East,90,10.0,18.0,70,0.00,,,0.00,VWS V14.01,2013-05-04 21:04:00,
2013-05-04 17:05:00,49.0,39.7,30.09,East,90,6.0,10.0,70,0.00,,,0.00,VWS V14.01,2013-05-04 21:05:00,
2013-05-04 17:06:00,49.0,39.7,30.09,SE,135,9.0,13.0,70,0.00,,,0.00,VWS V14.01,2013-05-04 21:06:00,
2013-05-04 17:08:00,49.0,39.7,30.09,ESE,112,10.0,17.0,70,0.00,,,0.00,VWS V14.01,2013-05-04 21:08:00,
2013-05-04 17:09:00,49.0,40.0,30.09,ESE,112,7.0,13.0,71,0.00,,,0.00,VWS V14.01,2013-05-04 21:09:00,
2013-05-04 17:10:00,49.0,39.7,30.10,ESE,112,8.0,10.0,70,0.00,,,0.00,VWS V14.01,2013-05-04 21:10:00,
2013-05-04 17:11:00,49.0,39.7,30.10,NE,45,10.0,11.0,70,0.00,,,0.00,VWS V14.01,2013-05-04 21:11:00,
2013-05-04 17:15:00,49.0,40.0,30.10,NE,45,8.0,8.0,71,0.00,,,0.00,VWS V14.01,2013-05-04 21:15:00,
2013-05-04 17:16:00,49.0,40.0,30.10,East,90,7.0,9.0,71,0.00,,,0.00,VWS V14.01,2013-05-04 21:16:00,
2013-05-04 17:17:00,49.0,39.3,30.10,ENE,67,9.0,10.0,69,0.00,,,0.00,VWS V14.01,2013-05-04 21:17:00,
2013-05-04 17:21:00,48.0,38.7,30.09,East,90,9.0,11.0,70,0.00,,,0.00,VWS V14.01,2013-05-04 21:21:00,
2013-05-04 17:22:00,48.0,38.7,30.09,East,90,8.0,11.0,70,0.00,,,0.00,VWS V14.01,2013-05-04 21:22:00,
2013-05-04 17:23:00,48.0,38.7,30.09,ENE,67,12.0,12.0,70,0.00,,,0.00,VWS V14.01,2013-05-04 21:23:00,
2013-05-04 17:26:00,48.0,38.7,30.09,ENE,67,10.0,15.0,70,0.00,,,0.00,VWS V14.01,2013-05-04 21:26:00,
2013-05-04 17:27:00,49.0,39.7,30.09,NNE,22,10.0,11.0,70,0.00,,,0.00,VWS V14.01,2013-05-04 21:27:00,
2013-05-04 17:28:00,49.0,39.7,30.09,NE,45,9.0,12.0,70,0.00,,,0.00,VWS V14.01,2013-05-04 21:28:00,
2013-05-04 17:29:00,49.0,39.7,30.09,NE,45,10.0,10.0,70,0.00,,,0.00,VWS V14.01,2013-05-04 21:29:00,
2013-05-04 17:33:00,49.0,38.5,30.09,ENE,67,10.0,12.0,67,0.00,,,0.00,VWS V14.01,2013-05-04 21:33:00,
2013-05-04 17:34:00,49.0,38.9,30.09,East,90,6.0,13.0,68,0.00,,,0.00,VWS V14.01,2013-05-04 21:34:00,
2013-05-04 17:35:00,49.0,38.9,30.09,East,90,7.0,13.0,68,0.00,,,0.00,VWS V14.01,2013-05-04 21:35:00,
2013-05-04 17:38:00,48.0,38.0,30.09,ENE,67,10.0,10.0,68,0.00,,,0.00,VWS V14.01,2013-05-04 21:38:00,
2013-05-04 17:39:00,48.0,38.0,30.09,ENE,67,7.0,10.0,68,0.00,,,0.00,VWS V14.01,2013-05-04 21:39:00,
2013-05-04 17:41:00,48.0,38.0,30.09,ESE,112,10.0,12.0,68,0.00,,,0.00,VWS V14.01,2013-05-04 21:41:00,
2013-05-04 17:44:00,49.0,38.9,30.09,ENE,67,12.0,14.0,68,0.00,,,0.00,VWS V14.01,2013-05-04 21:44:00,
2013-05-04 17:45:00,49.0,38.2,30.09,East,90,10.0,16.0,66,0.00,,,0.00,VWS V14.01,2013-05-04 21:45:00,
2013-05-04 17:46:00,49.0,38.2,30.09,East,90,8.0,16.0,66,0.00,,,0.00,VWS V14.01,2013-05-04 21:46:00,
2013-05-04 17:47:00,49.0,38.2,30.09,East,90,10.0,12.0,66,0.00,,,0.00,VWS V14.01,2013-05-04 21:47:00,
2013-05-04 17:50:00,49.0,38.5,30.08,ENE,67,16.0,16.0,67,0.00,,,0.00,VWS V14.01,2013-05-04 21:50:00,
2013-05-04 17:51:00,49.0,38.5,30.08,ESE,112,11.0,18.0,67,0.00,,,0.00,VWS V14.01,2013-05-04 21:51:00,
2013-05-04 17:52:00,49.0,38.5,30.08,ESE,112,10.0,12.0,67,0.00,,,0.00,VWS V14.01,2013-05-04 21:52:00,
2013-05-04 17:53:00,49.0,38.9,30.08,ESE,112,9.0,12.0,68,0.00,,,0.00,VWS V14.01,2013-05-04 21:53:00,
2013-05-04 17:56:00,49.0,38.9,30.08,East,90,10.0,16.0,68,0.00,,,0.00,VWS V14.01,2013-05-04 21:56:00,
2013-05-04 17:59:00,49.0,38.5,30.08,East,90,9.0,16.0,67,0.00,,,0.00,VWS V14.01,2013-05-04 21:59:00,
2013-05-04 18:00:00,49.0,38.2,30.08,ESE,112,10.0,17.0,66,0.00,,,0.00,VWS V14.01,2013-05-04 22:00:00,
2013-05-04 18:01:00,49.0,38.5,30.08,ESE,112,8.0,13.0,67,0.00,,,0.00,VWS V14.01,2013-05-04 22:01:00,
2013-05-04 18:02:00,49.0,38.9,30.08,ESE,112,9.0,10.0,68,0.00,,,0.00,VWS V14.01,2013-05-04 22:02:00,
2013-05-04 18:04:00,49.0,39.3,30.08,ESE,112,10.0,10.0,69,0.00,,,0.00,VWS V14.01,2013-05-04 22:04:00,
2013-05-04 18:05:00,49.0,39.3,30.08,ESE,112,7.0,10.0,69,0.00,,,0.00,VWS V14.01,2013-05-04 22:05:00,
2013-05-04 18:07:00,49.0,39.7,30.08,ENE,67,5.0,7.0,69,0.00,,,0.00,VWS V14.01,2013-05-04 22:07:00,
2013-05-04 18:09:00,49.0,39.3,30.09,ENE,67,6.0,12.0,69,0.00,,,0.00,VWS V14.01,2013-05-04 22:09:00,
2013-05-04 18:10:00,49.0,39.3,30.09,NNE,22,9.0,12.0,69,0.00,,,0.00,VWS V14.01,2013-05-04 22:10:00,
2013-05-04 18:11:00,49.0,39.3,30.09,ENE,67,9.0,9.0,69,0.00,,,0.00,VWS V14.01,2013-05-04 22:11:00,
2013-05-04 18:12:00,49.0,39.3,30.09,North,360,6.0,10.0,69,0.00,,,0.00,VWS V14.01,2013-05-04 22:12:00,
2013-05-04 18:13:00,49.0,39.3,30.09,NNE,22,5.0,10.0,69,0.00,,,0.00,VWS V14.01,2013-05-04 22:13:00,
2013-05-04 18:16:00,49.0,38.9,30.09,East,90,10.0,10.0,68,0.00,,,0.00,VWS V14.01,2013-05-04 22:16:00,
2013-05-04 18:17:00,49.0,39.3,30.09,East,90,14.0,15.0,69,0.00,,,0.00,VWS V14.01,2013-05-04 22:17:00,
2013-05-04 18:18:00,49.0,39.3,30.09,East,90,13.0,15.0,69,0.00,,,0.00,VWS V14.01,2013-05-04 22:18:00,
2013-05-04 18:19:00,49.0,40.0,30.09,ENE,67,12.0,12.0,71,0.00,,,0.00,VWS V14.01,2013-05-04 22:19:00,
2013-05-04 18:21:00,49.0,39.7,30.09,ENE,67,9.0,10.0,70,0.00,,,0.00,VWS V14.01,2013-05-04 22:21:00,
2013-05-04 18:22:00,49.0,39.7,30.09,East,90,8.0,12.0,70,0.00,,,0.00,VWS V14.01,2013-05-04 22:22:00,
2013-05-04 18:23:00,49.0,39.7,30.09,East,90,9.0,12.0,70,0.00,,,0.00,VWS V14.01,2013-05-04 22:23:00,
2013-05-04 18:26:00,48.0,38.7,30.09,ENE,67,12.0,19.0,70,0.00,,,0.00,VWS V14.01,2013-05-04 22:26:00,
2013-05-04 18:27:00,48.0,39.1,30.09,East,90,9.0,16.0,71,0.00,,,0.00,VWS V14.01,2013-05-04 22:27:00,
2013-05-04 18:28:00,48.0,39.1,30.09,East,90,5.0,9.0,71,0.00,,,0.00,VWS V14.01,2013-05-04 22:28:00,
2013-05-04 18:29:00,48.0,39.1,30.09,ENE,67,10.0,10.0,71,0.00,,,0.00,VWS V14.01,2013-05-04 22:29:00,
2013-05-04 18:31:00,47.0,38.1,30.09,ENE,67,10.0,13.0,71,0.00,,,0.00,VWS V14.01,2013-05-04 22:31:00,
2013-05-04 18:32:00,47.0,38.1,30.09,East,90,8.0,13.0,71,0.00,,,0.00,VWS V14.01,2013-05-04 22:32:00,
2013-05-04 18:33:00,47.0,38.5,30.09,East,90,10.0,13.0,72,0.00,,,0.00,VWS V14.01,2013-05-04 22:33:00,
2013-05-04 18:37:00,47.0,38.8,30.09,ENE,67,9.0,12.0,73,0.00,,,0.00,VWS V14.01,2013-05-04 22:37:00,
2013-05-04 18:39:00,47.0,38.8,30.09,East,90,13.0,15.0,73,0.00,,,0.00,VWS V14.01,2013-05-04 22:39:00,
2013-05-04 18:40:00,47.0,39.2,30.09,East,90,8.0,9.0,74,0.00,,,0.00,VWS V14.01,2013-05-04 22:40:00,
2013-05-04 18:42:00,47.0,39.2,30.09,ENE,67,11.0,11.0,74,0.00,,,0.00,VWS V14.01,2013-05-04 22:42:00,
2013-05-04 18:44:00,47.0,39.2,30.09,East,90,2.0,8.0,74,0.00,,,0.00,VWS V14.01,2013-05-04 22:44:00,
2013-05-04 18:45:00,47.0,39.2,30.09,ENE,67,7.0,7.0,74,0.00,,,0.00,VWS V14.01,2013-05-04 22:45:00,
2013-05-04 18:47:00,47.0,39.2,30.09,ESE,112,5.0,10.0,74,0.00,,,0.00,VWS V14.01,2013-05-04 22:47:00,
2013-05-04 18:49:00,47.0,39.5,30.08,ENE,67,12.0,12.0,75,0.00,,,0.00,VWS V14.01,2013-05-04 22:49:00,
2013-05-04 18:50:00,47.0,39.5,30.08,East,90,13.0,13.0,75,0.00,,,0.00,VWS V14.01,2013-05-04 22:50:00,
2013-05-04 18:52:00,46.0,38.5,30.08,NE,45,6.0,7.0,75,0.00,,,0.00,VWS V14.01,2013-05-04 22:52:00,
2013-05-04 18:54:00,46.0,38.5,30.08,ENE,67,8.0,13.0,75,0.00,,,0.00,VWS V14.01,2013-05-04 22:54:00,
2013-05-04 18:55:00,46.0,38.9,30.08,East,90,9.0,13.0,76,0.00,,,0.00,VWS V14.01,2013-05-04 22:55:00,
2013-05-04 18:56:00,46.0,38.9,30.08,East,90,9.0,10.0,76,0.00,,,0.00,VWS V14.01,2013-05-04 22:56:00,
2013-05-04 18:57:00,47.0,39.8,30.08,ENE,67,10.0,12.0,76,0.00,,,0.00,VWS V14.01,2013-05-04 22:57:00,
2013-05-04 19:00:00,47.0,39.8,30.08,East,90,4.0,10.0,76,0.00,,,0.00,VWS V14.01,2013-05-04 23:00:00,
2013-05-04 19:01:00,47.0,39.8,30.08,NE,45,8.0,8.0,76,0.00,,,0.00,VWS V14.01,2013-05-04 23:01:00,
2013-05-04 19:02:00,47.0,39.8,30.08,East,90,8.0,9.0,76,0.00,,,0.00,VWS V14.01,2013-05-04 23:02:00,
2013-05-04 19:03:00,46.0,38.9,30.08,ESE,112,10.0,13.0,76,0.00,,,0.00,VWS V14.01,2013-05-04 23:03:00,
2013-05-04 19:05:00,46.0,39.2,30.08,East,90,7.0,8.0,76,0.00,,,0.00,VWS V14.01,2013-05-04 23:05:00,
2013-05-04 19:06:00,46.0,39.2,30.08,East,90,7.0,10.0,77,0.00,,,0.00,VWS V14.01,2013-05-04 23:06:00,
2013-05-04 19:08:00,46.0,38.9,30.08,East,90,7.0,13.0,76,0.00,,,0.00,VWS V14.01,2013-05-04 23:08:00,
2013-05-04 19:09:00,47.0,40.2,30.08,East,90,7.0,7.0,77,0.00,,,0.00,VWS V14.01,2013-05-04 23:09:00,
2013-05-04 19:11:00,47.0,40.2,30.08,ENE,67,10.0,10.0,77,0.00,,,0.00,VWS V14.01,2013-05-04 23:11:00,
2013-05-04 19:14:00,46.0,38.9,30.08,East,90,7.0,10.0,76,0.00,,,0.00,VWS V14.01,2013-05-04 23:14:00,
2013-05-04 19:15:00,46.0,39.2,30.08,East,90,3.0,7.0,77,0.00,,,0.00,VWS V14.01,2013-05-04 23:15:00,
2013-05-04 19:16:00,46.0,39.2,30.08,NE,45,5.0,7.0,77,0.00,,,0.00,VWS V14.01,2013-05-04 23:16:00,
2013-05-04 19:17:00,46.0,39.2,30.08,NE,45,2.0,7.0,77,0.00,,,0.00,VWS V14.01,2013-05-04 23:17:00,
2013-05-04 19:19:00,46.0,39.2,30.08,East,90,7.0,7.0,77,0.00,,,0.00,VWS V14.01,2013-05-04 23:19:00,
2013-05-04 19:22:00,46.0,39.2,30.08,ENE,67,6.0,7.0,77,0.00,,,0.00,VWS V14.01,2013-05-04 23:22:00,
2013-05-04 19:24:00,46.0,39.2,30.08,ESE,112,10.0,14.0,77,0.00,,,0.00,VWS V14.01,2013-05-04 23:24:00,
2013-05-04 19:25:00,46.0,39.5,30.08,ESE,112,9.0,10.0,78,0.00,,,0.00,VWS V14.01,2013-05-04 23:25:00,
2013-05-04 19:26:00,46.0,39.5,30.08,ESE,112,7.0,10.0,78,0.00,,,0.00,VWS V14.01,2013-05-04 23:26:00,
2013-05-04 19:28:00,46.0,39.5,30.08,ENE,67,9.0,10.0,78,0.00,,,0.00,VWS V14.01,2013-05-04 23:28:00,
2013-05-04 19:29:00,46.0,39.5,30.08,NE,45,6.0,10.0,78,0.00,,,0.00,VWS V14.01,2013-05-04 23:29:00,
2013-05-04 19:32:00,46.0,39.5,30.09,East,90,12.0,12.0,78,0.00,,,0.00,VWS V14.01,2013-05-04 23:32:00,
2013-05-04 19:34:00,46.0,39.5,30.09,ENE,67,11.0,13.0,78,0.00,,,0.00,VWS V14.01,2013-05-04 23:34:00,
2013-05-04 19:35:00,46.0,39.9,30.09,East,90,11.0,13.0,79,0.00,,,0.00,VWS V14.01,2013-05-04 23:35:00,
2013-05-04 19:37:00,46.0,39.9,30.09,NE,45,10.0,12.0,79,0.00,,,0.00,VWS V14.01,2013-05-04 23:37:00,
2013-05-04 19:38:00,46.0,39.9,30.09,ENE,67,13.0,13.0,79,0.00,,,0.00,VWS V14.01,2013-05-04 23:38:00,
2013-05-04 19:39:00,46.0,39.9,30.08,ENE,67,12.0,12.0,79,0.00,,,0.00,VWS V14.01,2013-05-04 23:39:00,
2013-05-04 19:42:00,46.0,39.9,30.08,ESE,112,7.0,9.0,79,0.00,,,0.00,VWS V14.01,2013-05-04 23:42:00,
2013-05-04 19:43:00,46.0,40.2,30.08,East,90,8.0,9.0,80,0.00,,,0.00,VWS V14.01,2013-05-04 23:43:00,
2013-05-04 19:44:00,46.0,40.2,30.08,East,90,10.0,10.0,80,0.00,,,0.00,VWS V14.01,2013-05-04 23:44:00,
2013-05-04 19:47:00,46.0,40.2,30.08,East,90,5.0,6.0,80,0.00,,,0.00,VWS V14.01,2013-05-04 23:47:00,
2013-05-04 19:49:00,46.0,40.2,30.08,East,90,12.0,13.0,80,0.00,,,0.00,VWS V14.01,2013-05-04 23:49:00,
2013-05-04 19:50:00,46.0,39.9,30.08,East,90,8.0,13.0,79,0.00,,,0.00,VWS V14.01,2013-05-04 23:50:00,
2013-05-04 19:52:00,46.0,40.2,30.08,East,90,7.0,9.0,80,0.00,,,0.00,VWS V14.01,2013-05-04 23:52:00,
2013-05-04 19:54:00,46.0,40.2,30.08,East,90,9.0,9.0,80,0.00,,,0.00,VWS V14.01,2013-05-04 23:54:00,
2013-05-04 19:55:00,45.0,39.2,30.08,East,90,6.0,7.0,80,0.00,,,0.00,VWS V14.01,2013-05-04 23:55:00,
2013-05-04 19:56:00,45.0,39.2,30.08,ESE,112,3.0,7.0,80,0.00,,,0.00,VWS V14.01,2013-05-04 23:56:00,
2013-05-04 19:57:00,45.0,39.5,30.08,East,90,2.0,3.0,81,0.00,,,0.00,VWS V14.01,2013-05-04 23:57:00,
2013-05-04 19:59:00,45.0,39.5,30.08,East,90,6.0,6.0,81,0.00,,,0.00,VWS V14.01,2013-05-04 23:59:00,
2013-05-04 20:01:00,45.0,39.5,30.08,ENE,67,10.0,13.0,81,0.00,,,0.00,VWS V14.01,2013-05-05 00:01:00,
2013-05-04 20:02:00,45.0,39.5,30.08,ENE,67,7.0,10.0,81,0.00,,,0.00,VWS V14.01,2013-05-05 00:02:00,
2013-05-04 20:04:00,45.0,39.5,30.08,ESE,112,4.0,6.0,81,0.00,,,0.00,VWS V14.01,2013-05-05 00:04:00,
2013-05-04 20:07:00,45.0,39.5,30.08,ENE,67,6.0,6.0,81,0.00,,,0.00,VWS V14.01,2013-05-05 00:07:00,
2013-05-04 20:09:00,45.0,39.8,30.09,East,90,9.0,9.0,82,0.00,,,0.00,VWS V14.01,2013-05-05 00:09:00,
2013-05-04 20:11:00,45.0,39.5,30.09,East,90,8.0,10.0,81,0.00,,,0.00,VWS V14.01,2013-05-05 00:11:00,
2013-05-04 20:12:00,45.0,39.8,30.09,East,90,5.0,6.0,82,0.00,,,0.00,VWS V14.01,2013-05-05 00:12:00,
2013-05-04 20:13:00,45.0,39.8,30.09,East,90,3.0,3.0,82,0.00,,,0.00,VWS V14.01,2013-05-05 00:13:00,
2013-05-04 20:14:00,45.0,39.8,30.09,NE,45,7.0,7.0,82,0.00,,,0.00,VWS V14.01,2013-05-05 00:14:00,
2013-05-04 20:16:00,45.0,39.8,30.09,NE,45,5.0,6.0,82,0.00,,,0.00,VWS V14.01,2013-05-05 00:16:00,
2013-05-04 20:18:00,45.0,39.8,30.09,ENE,67,6.0,6.0,82,0.00,,,0.00,VWS V14.01,2013-05-05 00:18:00,
2013-05-04 20:19:00,45.0,40.2,30.09,East,90,6.0,8.0,83,0.00,,,0.00,VWS V14.01,2013-05-05 00:19:00,
2013-05-04 20:20:00,45.0,40.2,30.09,NE,45,3.0,9.0,83,0.00,,,0.00,VWS V14.01,2013-05-05 00:20:00,
2013-05-04 20:21:00,45.0,40.2,30.09,ENE,67,6.0,9.0,83,0.00,,,0.00,VWS V14.01,2013-05-05 00:21:00,
2013-05-04 20:22:00,45.0,40.2,30.09,East,90,6.0,8.0,83,0.00,,,0.00,VWS V14.01,2013-05-05 00:22:00,
2013-05-04 20:23:00,45.0,40.2,30.09,NE,45,4.0,4.0,83,0.00,,,0.00,VWS V14.01,2013-05-05 00:23:00,
2013-05-04 20:24:00,45.0,40.2,30.09,NE,45,5.0,7.0,83,0.00,,,0.00,VWS V14.01,2013-05-05 00:24:00,
2013-05-04 20:26:00,45.0,40.2,30.09,NNE,22,5.0,6.0,83,0.00,,,0.00,VWS V14.01,2013-05-05 00:26:00,
2013-05-04 20:27:00,44.0,39.5,30.09,NE,45,5.0,5.0,84,0.00,,,0.00,VWS V14.01,2013-05-05 00:27:00,
2013-05-04 20:28:00,44.0,39.5,30.09,NNE,22,6.0,8.0,84,0.00,,,0.00,VWS V14.01,2013-05-05 00:28:00,
2013-05-04 20:29:00,45.0,40.5,30.09,ENE,67,6.0,7.0,84,0.00,,,0.00,VWS V14.01,2013-05-05 00:29:00,
2013-05-04 20:32:00,44.0,39.5,30.09,NE,45,5.0,6.0,84,0.00,,,0.00,VWS V14.01,2013-05-05 00:32:00,
2013-05-04 20:33:00,44.0,39.5,30.09,NE,45,5.0,6.0,84,0.00,,,0.00,VWS V14.01,2013-05-05 00:33:00,
2013-05-04 20:34:00,44.0,39.5,30.09,NE,45,2.0,3.0,84,0.00,,,0.00,VWS V14.01,2013-05-05 00:34:00,
2013-05-04 20:35:00,44.0,39.5,30.09,NE,45,3.0,3.0,84,0.00,,,0.00,VWS V14.01,2013-05-05 00:35:00,
2013-05-04 20:39:00,44.0,39.8,30.09,NNE,22,5.0,5.0,85,0.00,,,0.00,VWS V14.01,2013-05-05 00:39:00,
2013-05-04 20:40:00,44.0,40.1,30.10,NNE,22,4.0,4.0,85,0.00,,,0.00,VWS V14.01,2013-05-05 00:40:00,
2013-05-04 20:41:00,44.0,40.1,30.10,NNE,22,2.0,4.0,86,0.00,,,0.00,VWS V14.01,2013-05-05 00:41:00,
2013-05-04 20:42:00,44.0,40.1,30.10,NNE,22,3.0,3.0,86,0.00,,,0.00,VWS V14.01,2013-05-05 00:42:00,
2013-05-04 20:45:00,43.0,39.1,30.10,NE,45,4.0,5.0,86,0.00,,,0.00,VWS V14.01,2013-05-05 00:45:00,
2013-05-04 20:46:00,43.0,39.1,30.10,NE,45,4.0,5.0,86,0.00,,,0.00,VWS V14.01,2013-05-05 00:46:00,
2013-05-04 20:47:00,43.0,39.1,30.10,NE,45,4.0,6.0,86,0.00,,,0.00,VWS V14.01,2013-05-05 00:47:00,
2013-05-04 20:48:00,43.0,39.1,30.10,NE,45,4.0,6.0,86,0.00,,,0.00,VWS V14.01,2013-05-05 00:48:00,
2013-05-04 20:50:00,43.0,39.1,30.10,NE,45,4.0,4.0,86,0.00,,,0.00,VWS V14.01,2013-05-05 00:50:00,
2013-05-04 20:52:00,43.0,39.1,30.10,NE,45,2.0,6.0,86,0.00,,,0.00,VWS V14.01,2013-05-05 00:52:00,
2013-05-04 20:53:00,43.0,39.1,30.10,NE,45,4.0,5.0,86,0.00,,,0.00,VWS V14.01,2013-05-05 00:53:00,
2013-05-04 20:54:00,43.0,39.1,30.10,NE,45,4.0,6.0,86,0.00,,,0.00,VWS V14.01,2013-05-05 00:54:00,
2013-05-04 20:56:00,43.0,39.1,30.10,NE,45,4.0,4.0,86,0.00,,,0.00,VWS V14.01,2013-05-05 00:56:00,
2013-05-04 20:58:00,43.0,39.4,30.10,NE,45,2.0,4.0,87,0.00,,,0.00,VWS V14.01,2013-05-05 00:58:00,
2013-05-04 20:59:00,43.0,39.4,30.10,NE,45,2.0,3.0,87,0.00,,,0.00,VWS V14.01,2013-05-05 00:59:00,
2013-05-04 21:03:00,43.0,39.4,30.10,NE,45,3.0,3.0,87,0.00,,,0.00,VWS V14.01,2013-05-05 01:03:00,
2013-05-04 21:04:00,43.0,39.4,30.10,NE,45,4.0,4.0,87,0.00,,,0.00,VWS V14.01,2013-05-05 01:04:00,
2013-05-04 21:05:00,43.0,39.4,30.10,NE,45,1.0,5.0,87,0.00,,,0.00,VWS V14.01,2013-05-05 01:05:00,
2013-05-04 21:07:00,43.0,39.7,30.10,NE,45,3.0,4.0,88,0.00,,,0.00,VWS V14.01,2013-05-05 01:07:00,
2013-05-04 21:08:00,43.0,39.7,30.10,NE,45,6.0,6.0,88,0.00,,,0.00,VWS V14.01,2013-05-05 01:08:00,
2013-05-04 21:09:00,43.0,39.7,30.10,NE,45,1.0,6.0,88,0.00,,,0.00,VWS V14.01,2013-05-05 01:09:00,
2013-05-04 21:10:00,42.0,38.7,30.10,NE,45,3.0,5.0,88,0.00,,,0.00,VWS V14.01,2013-05-05 01:10:00,
2013-05-04 21:11:00,42.0,38.7,30.10,NE,45,4.0,4.0,88,0.00,,,0.00,VWS V14.01,2013-05-05 01:11:00,
2013-05-04 21:12:00,42.0,38.7,30.10,NE,45,2.0,3.0,88,0.00,,,0.00,VWS V14.01,2013-05-05 01:12:00,
2013-05-04 21:15:00,42.0,39.0,30.10,NNE,22,5.0,6.0,89,0.00,,,0.00,VWS V14.01,2013-05-05 01:15:00,
2013-05-04 21:16:00,42.0,39.0,30.10,NNE,22,2.0,3.0,89,0.00,,,0.00,VWS V14.01,2013-05-05 01:16:00,
2013-05-04 21:18:00,42.0,39.0,30.10,NNE,22,2.0,6.0,89,0.00,,,0.00,VWS V14.01,2013-05-05 01:18:00,
2013-05-04 21:21:00,42.0,39.3,30.11,NNE,22,4.0,5.0,90,0.00,,,0.00,VWS V14.01,2013-05-05 01:21:00,
2013-05-04 21:22:00,42.0,39.3,30.11,NNE,22,5.0,5.0,90,0.00,,,0.00,VWS V14.01,2013-05-05 01:22:00,
2013-05-04 21:23:00,42.0,39.3,30.11,NNE,22,4.0,4.0,90,0.00,,,0.00,VWS V14.01,2013-05-05 01:23:00,
2013-05-04 21:24:00,42.0,39.3,30.11,NNE,22,3.0,6.0,90,0.00,,,0.00,VWS V14.01,2013-05-05 01:24:00,
2013-05-04 21:26:00,42.0,39.3,30.11,NNE,22,3.0,4.0,90,0.00,,,0.00,VWS V14.01,2013-05-05 01:26:00,
2013-05-04 21:28:00,42.0,39.6,30.11,NNE,22,3.0,4.0,91,0.00,,,0.00,VWS V14.01,2013-05-05 01:28:00,
2013-05-04 21:29:00,42.0,39.6,30.11,NNE,22,2.0,4.0,91,0.00,,,0.00,VWS V14.01,2013-05-05 01:29:00,
2013-05-04 21:32:00,42.0,39.6,30.10,NNE,22,3.0,4.0,91,0.00,,,0.00,VWS V14.01,2013-05-05 01:32:00,
2013-05-04 21:33:00,42.0,39.6,30.10,NNE,22,3.0,4.0,91,0.00,,,0.00,VWS V14.01,2013-05-05 01:33:00,
2013-05-04 21:34:00,41.0,38.9,30.10,NNE,22,4.0,5.0,92,0.00,,,0.00,VWS V14.01,2013-05-05 01:34:00,
2013-05-04 21:35:00,41.0,38.9,30.10,NNE,22,3.0,4.0,92,0.00,,,0.00,VWS V14.01,2013-05-05 01:35:00,
2013-05-04 21:36:00,41.0,38.9,30.10,NNE,22,4.0,4.0,92,0.00,,,0.00,VWS V14.01,2013-05-05 01:36:00,
2013-05-04 21:37:00,41.0,39.8,30.10,NE,45,2.0,3.0,92,0.00,,,0.00,VWS V14.01,2013-05-05 01:37:00,
2013-05-04 21:39:00,41.0,38.9,30.10,NE,45,4.0,4.0,92,0.00,,,0.00,VWS V14.01,2013-05-05 01:39:00,
2013-05-04 21:40:00,42.0,39.8,30.10,NE,45,4.0,4.0,92,0.00,,,0.00,VWS V14.01,2013-05-05 01:40:00,
2013-05-04 21:43:00,41.0,38.9,30.10,NE,45,2.0,4.0,92,0.00,,,0.00,VWS V14.01,2013-05-05 01:43:00,
2013-05-04 21:44:00,41.0,38.9,30.10,NE,45,3.0,4.0,92,0.00,,,0.00,VWS V14.01,2013-05-05 01:44:00,
2013-05-04 21:45:00,41.0,38.9,30.10,NE,45,3.0,4.0,92,0.00,,,0.00,VWS V14.01,2013-05-05 01:45:00,
2013-05-04 21:49:00,41.0,39.1,30.10,NE,45,3.0,4.0,93,0.00,,,0.00,VWS V14.01,2013-05-05 01:49:00,
2013-05-04 21:50:00,41.0,39.1,30.10,NE,45,4.0,4.0,93,0.00,,,0.00,VWS V14.01,2013-05-05 01:50:00,
2013-05-04 21:52:00,41.0,39.1,30.10,NE,45,3.0,5.0,93,0.00,,,0.00,VWS V14.01,2013-05-05 01:52:00,
2013-05-04 21:54:00,41.0,39.1,30.10,NE,45,3.0,3.0,93,0.00,,,0.00,VWS V14.01,2013-05-05 01:54:00,
2013-05-04 21:56:00,41.0,39.1,30.10,NE,45,2.0,3.0,93,0.00,,,0.00,VWS V14.01,2013-05-05 01:56:00,
2013-05-04 21:57:00,41.0,39.1,30.10,NE,45,3.0,4.0,93,0.00,,,0.00,VWS V14.01,2013-05-05 01:57:00,
2013-05-04 21:58:00,41.0,39.1,30.10,NE,45,2.0,4.0,93,0.00,,,0.00,VWS V14.01,2013-05-05 01:58:00,
2013-05-04 21:59:00,41.0,39.1,30.10,NE,45,3.0,6.0,93,0.00,,,0.00,VWS V14.01,2013-05-05 01:59:00,
2013-05-04 22:01:00,41.0,39.4,30.11,NE,45,3.0,5.0,94,0.00,,,0.00,VWS V14.01,2013-05-05 02:01:00,
2013-05-04 22:02:00,41.0,39.4,30.11,NE,45,1.0,2.0,94,0.00,,,0.00,VWS V14.01,2013-05-05 02:02:00,
2013-05-04 22:03:00,41.0,39.4,30.11,NE,45,2.0,3.0,94,0.00,,,0.00,VWS V14.01,2013-05-05 02:03:00,
2013-05-04 22:04:00,41.0,39.4,30.11,NE,45,3.0,3.0,94,0.00,,,0.00,VWS V14.01,2013-05-05 02:04:00,
2013-05-04 22:06:00,41.0,39.4,30.11,NE,45,4.0,4.0,94,0.00,,,0.00,VWS V14.01,2013-05-05 02:06:00,
2013-05-04 22:07:00,41.0,39.4,30.11,NE,45,2.0,5.0,94,0.00,,,0.00,VWS V14.01,2013-05-05 02:07:00,
2013-05-04 22:08:00,41.0,39.4,30.11,NE,45,4.0,4.0,94,0.00,,,0.00,VWS V14.01,2013-05-05 02:08:00,
2013-05-04 22:09:00,41.0,39.4,30.11,NE,45,4.0,5.0,94,0.00,,,0.00,VWS V14.01,2013-05-05 02:09:00,
2013-05-04 22:11:00,41.0,39.4,30.11,NE,45,2.0,4.0,94,0.00,,,0.00,VWS V14.01,2013-05-05 02:11:00,
2013-05-04 22:13:00,41.0,39.4,30.11,NE,45,4.0,4.0,94,0.00,,,0.00,VWS V14.01,2013-05-05 02:13:00,
2013-05-04 22:14:00,41.0,39.7,30.11,NE,45,3.0,4.0,95,0.00,,,0.00,VWS V14.01,2013-05-05 02:14:00,
2013-05-04 22:15:00,41.0,39.7,30.11,NE,45,3.0,4.0,95,0.00,,,0.00,VWS V14.01,2013-05-05 02:15:00,
2013-05-04 22:16:00,41.0,39.7,30.11,NE,45,4.0,6.0,95,0.00,,,0.00,VWS V14.01,2013-05-05 02:16:00,
2013-05-04 22:17:00,41.0,39.7,30.11,NNE,22,4.0,6.0,95,0.00,,,0.00,VWS V14.01,2013-05-05 02:17:00,
2013-05-04 22:18:00,41.0,39.7,30.11,NNE,22,3.0,5.0,95,0.00,,,0.00,VWS V14.01,2013-05-05 02:18:00,
2013-05-04 22:20:00,41.0,39.7,30.10,NNE,22,6.0,6.0,95,0.00,,,0.00,VWS V14.01,2013-05-05 02:20:00,
2013-05-04 22:21:00,41.0,39.7,30.10,NNE,22,2.0,6.0,95,0.00,,,0.00,VWS V14.01,2013-05-05 02:21:00,
2013-05-04 22:22:00,41.0,39.7,30.10,NNE,22,5.0,7.0,95,0.00,,,0.00,VWS V14.01,2013-05-05 02:22:00,
2013-05-04 22:24:00,41.0,39.7,30.10,NE,45,2.0,6.0,95,0.00,,,0.00,VWS V14.01,2013-05-05 02:24:00,
2013-05-04 22:25:00,41.0,39.7,30.10,NNE,22,4.0,5.0,95,0.00,,,0.00,VWS V14.01,2013-05-05 02:25:00,
2013-05-04 22:26:00,41.0,39.7,30.10,NNE,22,1.0,5.0,95,0.00,,,0.00,VWS V14.01,2013-05-05 02:26:00,
2013-05-04 22:28:00,41.0,40.0,30.10,NE,45,4.0,4.0,96,0.00,,,0.00,VWS V14.01,2013-05-05 02:28:00,
2013-05-04 22:29:00,41.0,40.0,30.10,ENE,67,1.0,4.0,96,0.00,,,0.00,VWS V14.01,2013-05-05 02:29:00,
2013-05-04 22:31:00,41.0,40.0,30.10,ENE,67,1.0,2.0,96,0.00,,,0.00,VWS V14.01,2013-05-05 02:31:00,
2013-05-04 22:32:00,41.0,40.0,30.10,NE,45,1.0,5.0,96,0.00,,,0.00,VWS V14.01,2013-05-05 02:32:00,
2013-05-04 22:34:00,41.0,40.0,30.10,ENE,67,1.0,4.0,96,0.00,,,0.00,VWS V14.01,2013-05-05 02:34:00,
2013-05-04 22:35:00,41.0,40.0,30.10,ENE,67,3.0,3.0,96,0.00,,,0.00,VWS V14.01,2013-05-05 02:35:00,
2013-05-04 22:36:00,41.0,40.0,30.10,ENE,67,2.0,3.0,96,0.00,,,0.00,VWS V14.01,2013-05-05 02:36:00,
2013-05-04 22:37:00,41.0,40.0,30.10,ENE,67,1.0,3.0,96,0.00,,,0.00,VWS V14.01,2013-05-05 02:37:00,
2013-05-04 22:39:00,41.0,40.0,30.10,NE,45,3.0,3.0,96,0.00,,,0.00,VWS V14.01,2013-05-05 02:39:00,
2013-05-04 22:40:00,41.0,40.0,30.10,NE,45,3.0,4.0,96,0.00,,,0.00,VWS V14.01,2013-05-05 02:40:00,
2013-05-04 22:41:00,41.0,40.0,30.10,NE,45,5.0,6.0,96,0.00,,,0.00,VWS V14.01,2013-05-05 02:41:00,
2013-05-04 22:42:00,41.0,40.0,30.10,NNE,22,4.0,6.0,96,0.00,,,0.00,VWS V14.01,2013-05-05 02:42:00,
2013-05-04 22:43:00,41.0,40.0,30.10,NNE,22,4.0,6.0,96,0.00,,,0.00,VWS V14.01,2013-05-05 02:43:00,
2013-05-04 22:44:00,41.0,40.0,30.10,NE,45,3.0,6.0,96,0.00,,,0.00,VWS V14.01,2013-05-05 02:44:00,
2013-05-04 22:45:00,41.0,40.0,30.10,ENE,67,4.0,6.0,96,0.00,,,0.00,VWS V14.01,2013-05-05 02:45:00,
2013-05-04 22:47:00,40.0,39.0,30.10,NE,45,3.0,4.0,96,0.00,,,0.00,VWS V14.01,2013-05-05 02:47:00,
2013-05-04 22:48:00,40.0,39.0,30.10,NE,45,5.0,6.0,96,0.00,,,0.00,VWS V14.01,2013-05-05 02:48:00,
2013-05-04 22:50:00,41.0,40.0,30.10,NE,45,3.0,3.0,96,0.00,,,0.00,VWS V14.01,2013-05-05 02:50:00,
2013-05-04 22:51:00,41.0,40.0,30.10,NE,45,4.0,4.0,96,0.00,,,0.00,VWS V14.01,2013-05-05 02:51:00,
2013-05-04 22:53:00,41.0,40.0,30.10,NE,45,4.0,6.0,96,0.00,,,0.00,VWS V14.01,2013-05-05 02:53:00,
2013-05-04 22:54:00,41.0,40.0,30.10,NE,45,5.0,6.0,96,0.00,,,0.00,VWS V14.01,2013-05-05 02:54:00,
2013-05-04 22:55:00,41.0,40.0,30.10,NE,45,5.0,5.0,96,0.00,,,0.00,VWS V14.01,2013-05-05 02:55:00,
2013-05-04 22:56:00,40.0,39.0,30.10,NE,45,5.0,6.0,96,0.00,,,0.00,VWS V14.01,2013-05-05 02:56:00,
2013-05-04 22:58:00,41.0,40.0,30.10,NE,45,6.0,7.0,96,0.00,,,0.00,VWS V14.01,2013-05-05 02:58:00,
2013-05-04 23:00:00,41.0,40.0,30.10,ENE,67,4.0,4.0,96,0.00,,,0.00,VWS V14.01,2013-05-05 03:00:00,
2013-05-04 23:01:00,41.0,40.0,30.10,ENE,67,3.0,4.0,96,0.00,,,0.00,VWS V14.01,2013-05-05 03:01:00,
2013-05-04 23:05:00,41.0,40.0,30.10,ENE,67,3.0,3.0,96,0.00,,,0.00,VWS V14.01,2013-05-05 03:05:00,
2013-05-04 23:06:00,41.0,40.0,30.10,NE,45,4.0,5.0,96,0.00,,,0.00,VWS V14.01,2013-05-05 03:06:00,
2013-05-04 23:07:00,41.0,40.0,30.10,ENE,67,3.0,5.0,96,0.00,,,0.00,VWS V14.01,2013-05-05 03:07:00,
2013-05-04 23:08:00,41.0,40.0,30.10,ENE,67,2.0,2.0,96,0.00,,,0.00,VWS V14.01,2013-05-05 03:08:00,
2013-05-04 23:12:00,41.0,40.0,30.09,NE,45,4.0,4.0,96,0.00,,,0.00,VWS V14.01,2013-05-05 03:12:00,
2013-05-04 23:13:00,41.0,40.0,30.09,NE,45,4.0,6.0,96,0.00,,,0.00,VWS V14.01,2013-05-05 03:13:00,
2013-05-04 23:17:00,40.0,39.0,30.09,NNE,22,2.0,4.0,96,0.00,,,0.00,VWS V14.01,2013-05-05 03:17:00,
2013-05-04 23:18:00,40.0,39.0,30.09,North,360,4.0,4.0,96,0.00,,,0.00,VWS V14.01,2013-05-05 03:18:00,
2013-05-04 23:20:00,40.0,39.0,30.10,North,360,0.0,0.0,96,0.00,,,0.00,VWS V14.01,2013-05-05 03:20:00,
2013-05-04 23:22:00,40.0,39.0,30.10,North,360,1.0,2.0,96,0.00,,,0.00,VWS V14.01,2013-05-05 03:22:00,
2013-05-04 23:23:00,40.0,39.0,30.10,NNE,22,6.0,6.0,96,0.00,,,0.00,VWS V14.01,2013-05-05 03:23:00,
2013-05-04 23:24:00,40.0,39.0,30.10,NE,45,4.0,4.0,96,0.00,,,0.00,VWS V14.01,2013-05-05 03:24:00,
2013-05-04 23:25:00,40.0,39.0,30.10,NE,45,4.0,5.0,96,0.00,,,0.00,VWS V14.01,2013-05-05 03:25:00,
2013-05-04 23:27:00,40.0,39.0,30.10,NE,45,2.0,3.0,96,0.00,,,0.00,VWS V14.01,2013-05-05 03:27:00,
2013-05-04 23:29:00,40.0,39.0,30.10,NE,45,6.0,6.0,96,0.00,,,0.00,VWS V14.01,2013-05-05 03:29:00,
2013-05-04 23:30:00,40.0,39.0,30.09,NE,45,5.0,5.0,96,0.00,,,0.00,VWS V14.01,2013-05-05 03:30:00,
2013-05-04 23:31:00,40.0,39.0,30.09,NE,45,4.0,5.0,96,0.00,,,0.00,VWS V14.01,2013-05-05 03:31:00,
2013-05-04 23:32:00,40.0,39.0,30.09,NE,45,2.0,6.0,96,0.00,,,0.00,VWS V14.01,2013-05-05 03:32:00,
2013-05-04 23:33:00,40.0,39.0,30.09,ENE,67,5.0,5.0,96,0.00,,,0.00,VWS V14.01,2013-05-05 03:33:00,
2013-05-04 23:34:00,40.0,39.0,30.09,ENE,67,4.0,4.0,96,0.00,,,0.00,VWS V14.01,2013-05-05 03:34:00,
2013-05-04 23:36:00,40.0,39.0,30.09,ENE,67,2.0,5.0,96,0.00,,,0.00,VWS V14.01,2013-05-05 03:36:00,
2013-05-04 23:37:00,40.0,39.0,30.09,NE,45,4.0,5.0,96,0.00,,,0.00,VWS V14.01,2013-05-05 03:37:00,
2013-05-04 23:38:00,40.0,39.0,30.09,NE,45,6.0,6.0,96,0.00,,,0.00,VWS V14.01,2013-05-05 03:38:00,
2013-05-04 23:39:00,40.0,39.0,30.09,NE,45,6.0,7.0,96,0.00,,,0.00,VWS V14.01,2013-05-05 03:39:00,
2013-05-04 23:40:00,40.0,39.0,30.09,NE,45,4.0,7.0,96,0.00,,,0.00,VWS V14.01,2013-05-05 03:40:00,
2013-05-04 23:42:00,40.0,39.0,30.09,NE,45,4.0,6.0,96,0.00,,,0.00,VWS V14.01,2013-05-05 03:42:00,
2013-05-04 23:44:00,40.0,39.0,30.09,NE,45,6.0,6.0,96,0.00,,,0.00,VWS V14.01,2013-05-05 03:44:00,
2013-05-04 23:45:00,40.0,39.0,30.09,NE,45,3.0,6.0,96,0.00,,,0.00,VWS V14.01,2013-05-05 03:45:00,
2013-05-04 23:47:00,40.0,39.0,30.09,NE,45,3.0,6.0,96,0.00,,,0.00,VWS V14.01,2013-05-05 03:47:00,
2013-05-04 23:48:00,40.0,39.0,30.09,NE,45,7.0,7.0,96,0.00,,,0.00,VWS V14.01,2013-05-05 03:48:00,
2013-05-04 23:50:00,40.0,39.0,30.09,NE,45,6.0,7.0,96,0.00,,,0.00,VWS V14.01,2013-05-05 03:50:00,
2013-05-04 23:52:00,40.0,39.0,30.09,NE,45,5.0,5.0,96,0.00,,,0.00,VWS V14.01,2013-05-05 03:52:00,
2013-05-04 23:55:00,40.0,39.0,30.09,NNE,22,5.0,7.0,96,0.00,,,0.00,VWS V14.01,2013-05-05 03:55:00,
2013-05-04 23:57:00,40.0,39.0,30.09,NE,45,6.0,7.0,96,0.00,,,0.00,VWS V14.01,2013-05-05 03:57:00,
2013-05-04 23:58:00,40.0,39.0,30.09,NE,45,4.0,7.0,96,0.00,,,0.00,VWS V14.01,2013-05-05 03:58:00,
2013-05-04 23:59:00,40.0,39.0,30.09,NE,45,2.0,5.0,96,0.00,,,0.00,VWS V14.01,2013-05-05 03:59:00,